Observation data for Hackberry on 03/01/2021      Previous  Date  Next       Current Mesonet Observations  Soil Data  Daily Summary Page  Observations in Plain Language
KHA3 010600Z 02011KT 07/M06 A3018 RMK A01 T00741061  RH  038%=      5-min Rain = 0
KHA3 010601Z 02013KT 07/M06 A3019 RMK A01 T00741061  RH  038%=      5-min Rain = 0
KHA3 010602Z 02012KT 08/M06 A3019 RMK A01 T00751061  RH  038%=      5-min Rain = 0
KHA3 010603Z 02013KT 08/M06 A3019 RMK A01 T00751061  RH  038%=      5-min Rain = 0
KHA3 010604Z 01014KT 08/M06 A3019 RMK A01 T00751061  RH  037%=      5-min Rain = 0
KHA3 010605Z 01012KT 08/M06 A3019 RMK A01 T00761060  RH  037%=      5-min Rain = 0
KHA3 010606Z 02013KT 08/M06 A302 RMK A01 T00761060  RH  037%=      5-min Rain = 0
KHA3 010607Z 02011KT 08/M06 A302 RMK A01 T00761060  RH  037%=      5-min Rain = 0
KHA3 010608Z 02016KT 08/M06 A302 RMK A01 T00761060  RH  038%=      5-min Rain = 0
KHA3 010609Z 02013KT 08/M06 A302 RMK A01 T00761060  RH  037%=      5-min Rain = 0
KHA3 010610Z 02012KT 08/M06 A302 RMK A01 T00761060  RH  037%=      5-min Rain = 0
KHA3 010611Z 02014KT 08/M06 A302 RMK A01 T00761060  RH  037%=      5-min Rain = 0
KHA3 010612Z 02016G21KT 08/M06 A302 RMK A01 T00761060  RH  037%=      5-min Rain = 0
KHA3 010613Z 02015KT 08/M06 A3021 RMK A01 T00771060  RH  037%=      5-min Rain = 0
KHA3 010614Z 02011KT 08/M06 A3021 RMK A01 T00771059  RH  037%=      5-min Rain = 0
KHA3 010615Z 02012KT 08/M06 A3021 RMK A01 T00761059  RH  038%=      5-min Rain = 0
KHA3 010616Z 02012KT 08/M06 A3021 RMK A01 T00761059  RH  038%=      5-min Rain = 0
KHA3 010617Z 02011KT 08/M06 A3021 RMK A01 T00761059  RH  038%=      5-min Rain = 0
KHA3 010618Z 02012KT 08/M06 A3021 RMK A01 T00761058  RH  038%=      5-min Rain = 0
KHA3 010619Z 02015KT 08/M06 A3021 RMK A01 T00751058  RH  038%=      5-min Rain = 0
KHA3 010620Z 02014KT 08/M06 A3021 RMK A01 T00751059  RH  038%=      5-min Rain = 0
KHA3 010621Z 02012G17KT 08/M06 A3021 RMK A01 T00751058  RH  038%=      5-min Rain = 0
KHA3 010622Z 02012KT 08/M06 A3021 RMK A01 T00761058  RH  038%=      5-min Rain = 0
KHA3 010623Z 02013KT 08/M06 A3021 RMK A01 T00751058  RH  038%=      5-min Rain = 0
KHA3 010624Z 02013KT 08/M06 A3021 RMK A01 T00751058  RH  038%=      5-min Rain = 0
KHA3 010625Z 02014KT 08/M06 A3021 RMK A01 T00751058  RH  038%=      5-min Rain = 0
KHA3 010626Z 02015G20KT 08/M06 A3021 RMK A01 T00751058  RH  038%=      5-min Rain = 0
KHA3 010627Z 02015KT 08/M06 A302 RMK A01 T00751058  RH  038%=      5-min Rain = 0
KHA3 010628Z 02014KT 08/M06 A3021 RMK A01 T00751058  RH  038%=      5-min Rain = 0
KHA3 010629Z 03015KT 08/M06 A302 RMK A01 T00751058  RH  038%=      5-min Rain = 0
KHA3 010630Z 03015KT 08/M06 A302 RMK A01 T00751058  RH  038%=      5-min Rain = 0
KHA3 010631Z 03012KT 08/M06 A302 RMK A01 T00751058  RH  038%=      5-min Rain = 0
KHA3 010632Z 03014KT 07/M06 A302 RMK A01 T00741058  RH  038%=      5-min Rain = 0
KHA3 010633Z 03013KT 07/M06 A302 RMK A01 T00741058  RH  039%=      5-min Rain = 0
KHA3 010634Z 04014G19KT 07/M06 A302 RMK A01 T00731058  RH  039%=      5-min Rain = 0
KHA3 010635Z 03013KT 07/M06 A302 RMK A01 T00741058  RH  039%=      5-min Rain = 0
KHA3 010636Z 03014G20KT 07/M06 A302 RMK A01 T00731057  RH  039%=      5-min Rain = 0
KHA3 010637Z 03018KT 07/M06 A302 RMK A01 T00721058  RH  039%=      5-min Rain = 0
KHA3 010638Z 03017KT 07/M06 A302 RMK A01 T00731058  RH  039%=      5-min Rain = 0
KHA3 010639Z 02016KT 07/M06 A302 RMK A01 T00731058  RH  039%=      5-min Rain = 0
KHA3 010640Z 02015KT 07/M06 A302 RMK A01 T00731058  RH  039%=      5-min Rain = 0
KHA3 010641Z 02015KT 07/M06 A3019 RMK A01 T00721058  RH  039%=      5-min Rain = 0
KHA3 010642Z 02016KT 07/M06 A3019 RMK A01 T00721058  RH  039%=      5-min Rain = 0
KHA3 010643Z 02017KT 07/M06 A3019 RMK A01 T00721058  RH  039%=      5-min Rain = 0
KHA3 010644Z 02018KT 07/M06 A3019 RMK A01 T00721058  RH  039%=      5-min Rain = 0
KHA3 010645Z 02016KT 07/M06 A3019 RMK A01 T00721058  RH  039%=      5-min Rain = 0
KHA3 010646Z 02015KT 07/M06 A3018 RMK A01 T00721058  RH  039%=      5-min Rain = 0
KHA3 010647Z 02015G20KT 07/M06 A3018 RMK A01 T00711058  RH  039%=      5-min Rain = 0
KHA3 010648Z 02016KT 07/M06 A3018 RMK A01 T00711058  RH  039%=      5-min Rain = 0
KHA3 010649Z 02018KT 07/M06 A3018 RMK A01 T00711058  RH  040%=      5-min Rain = 0
KHA3 010650Z 02017KT 07/M06 A3018 RMK A01 T00711058  RH  039%=      5-min Rain = 0
KHA3 010651Z 02015KT 07/M06 A3017 RMK A01 T00711059  RH  039%=      5-min Rain = 0
KHA3 010652Z 02015KT 07/M06 A3017 RMK A01 T00711058  RH  039%=      5-min Rain = 0
KHA3 010653Z 02018KT 07/M06 A3017 RMK A01 T00711058  RH  039%=      5-min Rain = 0
KHA3 010654Z 03017G22KT 07/M06 A3017 RMK A01 T00711059  RH  039%=      5-min Rain = 0
KHA3 010655Z 02015KT 07/M06 A3017 RMK A01 T00711059  RH  039%=      5-min Rain = 0
KHA3 010656Z 03016KT 07/M06 A3017 RMK A01 T00711058  RH  039%=      5-min Rain = 0
KHA3 010657Z 02015KT 07/M06 A3017 RMK A01 T00701059  RH  039%=      5-min Rain = 0
KHA3 010658Z 02017KT 07/M06 A3017 RMK A01 T00701059  RH  039%=      5-min Rain = 0
KHA3 010659Z 03015KT 07/M06 A3017 RMK A01 T00701059  RH  039%=      5-min Rain = 0
KHA3 010700Z 02014KT 07/M06 A3017 RMK A01 T00701059  RH  039%=      5-min Rain = 0
KHA3 010701Z 02015KT 07/M06 A3017 RMK A01 T00701059  RH  039%=      5-min Rain = 0
KHA3 010702Z 02017KT 07/M06 A3017 RMK A01 T00701059  RH  039%=      5-min Rain = 0
KHA3 010703Z 02015KT 07/M06 A3018 RMK A01 T00701059  RH  039%=      5-min Rain = 0
KHA3 010704Z 02013KT 07/M06 A3018 RMK A01 T00701059  RH  039%=      5-min Rain = 0
KHA3 010705Z 02014KT 07/M06 A3018 RMK A01 T00701058  RH  040%=      5-min Rain = 0
KHA3 010706Z 02015KT 07/M06 A3019 RMK A01 T00701059  RH  039%=      5-min Rain = 0
KHA3 010707Z 02013KT 07/M06 A3019 RMK A01 T00701059  RH  039%=      5-min Rain = 0
KHA3 010708Z 01014KT 07/M06 A302 RMK A01 T00701059  RH  039%=      5-min Rain = 0
KHA3 010709Z 01012KT 07/M06 A302 RMK A01 T00701059  RH  039%=      5-min Rain = 0
KHA3 010710Z 01009KT 07/M06 A3021 RMK A01 T00701059  RH  040%=      5-min Rain = 0
KHA3 010711Z 01014KT 07/M06 A3021 RMK A01 T00691058  RH  040%=      5-min Rain = 0
KHA3 010712Z 01012KT 07/M06 A3021 RMK A01 T00701059  RH  039%=      5-min Rain = 0
KHA3 010713Z 01014KT 07/M06 A3022 RMK A01 T00691060  RH  039%=      5-min Rain = 0
KHA3 010714Z 02012KT 07/M06 A3022 RMK A01 T00691060  RH  039%=      5-min Rain = 0
KHA3 010715Z 01014G19KT 07/M06 A3022 RMK A01 T00691059  RH  039%=      5-min Rain = 0
KHA3 010716Z 02014KT 07/M06 A3022 RMK A01 T00691060  RH  039%=      5-min Rain = 0
KHA3 010717Z 02013G18KT 07/M06 A3022 RMK A01 T00701059  RH  039%=      5-min Rain = 0
KHA3 010718Z 02013KT 07/M06 A3022 RMK A01 T00691059  RH  039%=      5-min Rain = 0
KHA3 010719Z 02011KT 07/M06 A3022 RMK A01 T00691059  RH  040%=      5-min Rain = 0
KHA3 010720Z 01013KT 07/M06 A3022 RMK A01 T00691058  RH  040%=      5-min Rain = 0
KHA3 010721Z 02012KT 07/M06 A3022 RMK A01 T00681058  RH  040%=      5-min Rain = 0
KHA3 010722Z 02011KT 07/M06 A3022 RMK A01 T00681058  RH  040%=      5-min Rain = 0
KHA3 010723Z 01012KT 07/M06 A3022 RMK A01 T00681057  RH  041%=      5-min Rain = 0
KHA3 010724Z 01015KT 07/M06 A3021 RMK A01 T00671058  RH  040%=      5-min Rain = 0
KHA3 010725Z 01013KT 07/M06 A3021 RMK A01 T00671058  RH  040%=      5-min Rain = 0
KHA3 010726Z 01015KT 07/M06 A3021 RMK A01 T00671058  RH  041%=      5-min Rain = 0
KHA3 010727Z 01014KT 07/M06 A3021 RMK A01 T00671058  RH  040%=      5-min Rain = 0
KHA3 010728Z 01014KT 07/M06 A3021 RMK A01 T00671057  RH  041%=      5-min Rain = 0
KHA3 010729Z 01012KT 07/M06 A3021 RMK A01 T00671057  RH  041%=      5-min Rain = 0
KHA3 010730Z 01013KT 07/M06 A3021 RMK A01 T00661058  RH  041%=      5-min Rain = 0
KHA3 010731Z 01012KT 07/M06 A3021 RMK A01 T00661057  RH  041%=      5-min Rain = 0
KHA3 010732Z 02015KT 07/M06 A302 RMK A01 T00661057  RH  041%=      5-min Rain = 0
KHA3 010733Z 02017KT 07/M06 A302 RMK A01 T00661057  RH  041%=      5-min Rain = 0
KHA3 010734Z 02015KT 07/M06 A3019 RMK A01 T00661057  RH  041%=      5-min Rain = 0
KHA3 010735Z 03017KT 07/M06 A3019 RMK A01 T00651057  RH  041%=      5-min Rain = 0
KHA3 010736Z 03018KT 07/M06 A3018 RMK A01 T00651057  RH  041%=      5-min Rain = 0
KHA3 010737Z 02017KT 06/M06 A3018 RMK A01 T00641057  RH  041%=      5-min Rain = 0
KHA3 010738Z 02016G21KT 06/M06 A3018 RMK A01 T00641058  RH  041%=      5-min Rain = 0
KHA3 010739Z 02018KT 06/M06 A3018 RMK A01 T00641058  RH  041%=      5-min Rain = 0
KHA3 010740Z 03021KT 06/M06 A3018 RMK A01 T00641058  RH  041%=      5-min Rain = 0
KHA3 010741Z 02020KT 07/M06 A3018 RMK A01 T00651058  RH  041%=      5-min Rain = 0
KHA3 010742Z 03018KT 06/M06 A3018 RMK A01 T00641058  RH  041%=      5-min Rain = 0
KHA3 010743Z 03016KT 06/M06 A3018 RMK A01 T00641059  RH  041%=      5-min Rain = 0
KHA3 010744Z 03016KT 06/M06 A3019 RMK A01 T00641058  RH  041%=      5-min Rain = 0
KHA3 010745Z 03017KT 06/M06 A3019 RMK A01 T00641058  RH  041%=      5-min Rain = 0
KHA3 010746Z 03015KT 06/M06 A3019 RMK A01 T00641057  RH  041%=      5-min Rain = 0
KHA3 010747Z 04014G19KT 06/M06 A3019 RMK A01 T00641057  RH  042%=      5-min Rain = 0
KHA3 010748Z 03015KT 06/M06 A3019 RMK A01 T00641057  RH  042%=      5-min Rain = 0
KHA3 010749Z 03016KT 06/M06 A3019 RMK A01 T00631057  RH  042%=      5-min Rain = 0
KHA3 010750Z 03016KT 06/M06 A3018 RMK A01 T00631058  RH  042%=      5-min Rain = 0
KHA3 010751Z 03013KT 06/M06 A3018 RMK A01 T00631057  RH  042%=      5-min Rain = 0
KHA3 010752Z 03013G18KT 06/M06 A3018 RMK A01 T00621056  RH  042%=      5-min Rain = 0
KHA3 010753Z 03013KT 06/M06 A3018 RMK A01 T00621056  RH  042%=      5-min Rain = 0
KHA3 010754Z 03014KT 06/M06 A3018 RMK A01 T00621056  RH  042%=      5-min Rain = 0
KHA3 010755Z 03018KT 06/M06 A3018 RMK A01 T00621057  RH  042%=      5-min Rain = 0
KHA3 010756Z 03014KT 06/M06 A3018 RMK A01 T00621057  RH  042%=      5-min Rain = 0
KHA3 010757Z 03016KT 06/M06 A3018 RMK A01 T00621057  RH  042%=      5-min Rain = 0
KHA3 010758Z 03017KT 06/M06 A3018 RMK A01 T00621057  RH  042%=      5-min Rain = 0
KHA3 010759Z 03016KT 06/M06 A3017 RMK A01 T00621057  RH  042%=      5-min Rain = 0
KHA3 010800Z 03018KT 06/M06 A3017 RMK A01 T00621057  RH  042%=      5-min Rain = 0
KHA3 010801Z 03018KT 06/M06 A3017 RMK A01 T00621057  RH  042%=      5-min Rain = 0
KHA3 010802Z 02016KT 06/M06 A3017 RMK A01 T00611057  RH  042%=      5-min Rain = 0
KHA3 010803Z 03017KT 06/M06 A3017 RMK A01 T00611057  RH  043%=      5-min Rain = 0
KHA3 010804Z 03014KT 06/M06 A3017 RMK A01 T00611057  RH  043%=      5-min Rain = 0
KHA3 010805Z 02017KT 06/M06 A3017 RMK A01 T00601057  RH  043%=      5-min Rain = 0
KHA3 010806Z 02019KT 06/M06 A3017 RMK A01 T00601057  RH  043%=      5-min Rain = 0
KHA3 010807Z 03021KT 06/M06 A3017 RMK A01 T00601057  RH  043%=      5-min Rain = 0
KHA3 010808Z 02016KT 06/M06 A3017 RMK A01 T00611057  RH  043%=      5-min Rain = 0
KHA3 010809Z 02015KT 06/M06 A3017 RMK A01 T00601057  RH  043%=      5-min Rain = 0
KHA3 010810Z 03017G23KT 06/M06 A3017 RMK A01 T00601056  RH  043%=      5-min Rain = 0
KHA3 010811Z 02020KT 06/M06 A3017 RMK A01 T00601056  RH  043%=      5-min Rain = 0
KHA3 010812Z 03018KT 06/M06 A3016 RMK A01 T00601056  RH  043%=      5-min Rain = 0
KHA3 010813Z 03017KT 06/M06 A3016 RMK A01 T00601056  RH  043%=      5-min Rain = 0
KHA3 010814Z 03020KT 06/M06 A3016 RMK A01 T00601056  RH  043%=      5-min Rain = 0
KHA3 010815Z 02020KT 06/M06 A3016 RMK A01 T00591056  RH  043%=      5-min Rain = 0
KHA3 010816Z 03019KT 06/M06 A3016 RMK A01 T00591056  RH  043%=      5-min Rain = 0
KHA3 010817Z 03017G22KT 06/M06 A3017 RMK A01 T00591056  RH  043%=      5-min Rain = 0
KHA3 010818Z 02015KT 06/M06 A3017 RMK A01 T00591056  RH  043%=      5-min Rain = 0
KHA3 010819Z 02015KT 06/M06 A3017 RMK A01 T00591055  RH  044%=      5-min Rain = 0
KHA3 010820Z 02015KT 06/M06 A3017 RMK A01 T00591055  RH  044%=      5-min Rain = 0
KHA3 010821Z 02019KT 06/M06 A3017 RMK A01 T00591055  RH  044%=      5-min Rain = 0
KHA3 010822Z 02017KT 06/M06 A3017 RMK A01 T00591055  RH  044%=      5-min Rain = 0
KHA3 010823Z 02017KT 06/M06 A3017 RMK A01 T00591055  RH  044%=      5-min Rain = 0
KHA3 010824Z 02017G22KT 06/M06 A3017 RMK A01 T00591055  RH  044%=      5-min Rain = 0
KHA3 010825Z 02017G22KT 06/M05 A3017 RMK A01 T00591054  RH  044%=      5-min Rain = 0
KHA3 010826Z 03019KT 06/M05 A3017 RMK A01 T00591054  RH  044%=      5-min Rain = 0
KHA3 010827Z 02015G20KT 06/M06 A3017 RMK A01 T00591055  RH  044%=      5-min Rain = 0
KHA3 010828Z 02016KT 06/M05 A3017 RMK A01 T00591054  RH  044%=      5-min Rain = 0
KHA3 010829Z 02019KT 06/M05 A3017 RMK A01 T00591054  RH  044%=      5-min Rain = 0
KHA3 010830Z 02017KT 06/M05 A3017 RMK A01 T00591054  RH  044%=      5-min Rain = 0
KHA3 010831Z 02017KT 06/M05 A3017 RMK A01 T00591054  RH  044%=      5-min Rain = 0
KHA3 010832Z 02018KT 06/M05 A3017 RMK A01 T00591054  RH  044%=      5-min Rain = 0
KHA3 010833Z 03015KT 06/M05 A3017 RMK A01 T00591054  RH  044%=      5-min Rain = 0
KHA3 010834Z 03015KT 06/M05 A3017 RMK A01 T00591054  RH  044%=      5-min Rain = 0
KHA3 010835Z 03015KT 06/M05 A3017 RMK A01 T00581053  RH  044%=      5-min Rain = 0
KHA3 010836Z 03015KT 06/M05 A3017 RMK A01 T00591053  RH  044%=      5-min Rain = 0
KHA3 010837Z 04015KT 06/M05 A3018 RMK A01 T00581054  RH  044%=      5-min Rain = 0
KHA3 010838Z 03014KT 06/M05 A3018 RMK A01 T00581054  RH  044%=      5-min Rain = 0
KHA3 010839Z 04013KT 06/M05 A3019 RMK A01 T00581054  RH  044%=      5-min Rain = 0
KHA3 010840Z 03013KT 06/M05 A3019 RMK A01 T00581054  RH  044%=      5-min Rain = 0
KHA3 010841Z 03012KT 06/M05 A3019 RMK A01 T00581054  RH  044%=      5-min Rain = 0
KHA3 010842Z 03012KT 06/M05 A3019 RMK A01 T00581054  RH  044%=      5-min Rain = 0
KHA3 010843Z 03013KT 06/M05 A302 RMK A01 T00581053  RH  045%=      5-min Rain = 0
KHA3 010844Z 03013KT 06/M05 A302 RMK A01 T00581053  RH  045%=      5-min Rain = 0
KHA3 010845Z 02013KT 06/M05 A302 RMK A01 T00581053  RH  045%=      5-min Rain = 0
KHA3 010846Z 02011G16KT 06/M05 A302 RMK A01 T00581053  RH  044%=      5-min Rain = 0
KHA3 010847Z 02012KT 06/M05 A302 RMK A01 T00581053  RH  044%=      5-min Rain = 0
KHA3 010848Z 02011KT 06/M05 A302 RMK A01 T00581053  RH  045%=      5-min Rain = 0
KHA3 010849Z 02010KT 06/M05 A302 RMK A01 T00591053  RH  045%=      5-min Rain = 0
KHA3 010850Z 02009KT 06/M05 A3021 RMK A01 T00581053  RH  045%=      5-min Rain = 0
KHA3 010851Z 02013KT 06/M05 A3021 RMK A01 T00581053  RH  045%=      5-min Rain = 0
KHA3 010852Z 01011KT 06/M05 A3021 RMK A01 T00581053  RH  045%=      5-min Rain = 0
KHA3 010853Z 02012KT 06/M05 A3021 RMK A01 T00581053  RH  045%=      5-min Rain = 0
KHA3 010854Z 02012KT 06/M05 A3021 RMK A01 T00571053  RH  045%=      5-min Rain = 0
KHA3 010855Z 02011KT 06/M05 A3021 RMK A01 T00581052  RH  045%=      5-min Rain = 0
KHA3 010856Z 02014KT 06/M05 A3021 RMK A01 T00581052  RH  045%=      5-min Rain = 0
KHA3 010857Z 03016KT 06/M05 A3021 RMK A01 T00581052  RH  045%=      5-min Rain = 0
KHA3 010858Z 02013KT 06/M05 A3021 RMK A01 T00571052  RH  045%=      5-min Rain = 0
KHA3 010859Z 02013KT 06/M05 A3021 RMK A01 T00581051  RH  045%=      5-min Rain = 0
KHA3 010900Z 02012KT 06/M05 A3021 RMK A01 T00571052  RH  045%=      5-min Rain = 0
KHA3 010901Z 02014KT 06/M05 A3021 RMK A01 T00571052  RH  046%=      5-min Rain = 0
KHA3 010902Z 02016KT 06/M05 A302 RMK A01 T00571052  RH  045%=      5-min Rain = 0
KHA3 010903Z 03017KT 06/M05 A3021 RMK A01 T00571052  RH  045%=      5-min Rain = 0
KHA3 010904Z 02015KT 06/M05 A3021 RMK A01 T00571052  RH  045%=      5-min Rain = 0
KHA3 010905Z 02013KT 06/M05 A3021 RMK A01 T00571052  RH  045%=      5-min Rain = 0
KHA3 010906Z 02011KT 06/M05 A3021 RMK A01 T00571051  RH  046%=      5-min Rain = 0
KHA3 010907Z 02014KT 06/M05 A3021 RMK A01 T00571051  RH  046%=      5-min Rain = 0
KHA3 010908Z 03013KT 06/M05 A3022 RMK A01 T00571051  RH  046%=      5-min Rain = 0
KHA3 010909Z 03013KT 06/M05 A3022 RMK A01 T00571051  RH  046%=      5-min Rain = 0
KHA3 010910Z 03013KT 06/M05 A3022 RMK A01 T00571051  RH  046%=      5-min Rain = 0
KHA3 010911Z 03015KT 06/M05 A3022 RMK A01 T00571051  RH  046%=      5-min Rain = 0
KHA3 010912Z 03014KT 06/M05 A3021 RMK A01 T00571051  RH  046%=      5-min Rain = 0
KHA3 010913Z 04014KT 06/M05 A3021 RMK A01 T00561050  RH  046%=      5-min Rain = 0
KHA3 010914Z 04014KT 06/M05 A3021 RMK A01 T00571050  RH  046%=      5-min Rain = 0
KHA3 010915Z 03015KT 06/M05 A3021 RMK A01 T00561050  RH  046%=      5-min Rain = 0
KHA3 010916Z 03013KT 06/M05 A3021 RMK A01 T00561051  RH  046%=      5-min Rain = 0
KHA3 010917Z 02013KT 06/M05 A3021 RMK A01 T00561050  RH  046%=      5-min Rain = 0
KHA3 010918Z 02011KT 06/M05 A3021 RMK A01 T00561050  RH  047%=      5-min Rain = 0
KHA3 010919Z 03013KT 06/M05 A3021 RMK A01 T00551049  RH  047%=      5-min Rain = 0
KHA3 010920Z 03012KT 06/M05 A3021 RMK A01 T00551050  RH  047%=      5-min Rain = 0
KHA3 010921Z 03014KT 06/M05 A3021 RMK A01 T00551049  RH  047%=      5-min Rain = 0
KHA3 010922Z 03013KT 06/M05 A3021 RMK A01 T00551050  RH  047%=      5-min Rain = 0
KHA3 010923Z 02012KT 06/M05 A3021 RMK A01 T00551050  RH  047%=      5-min Rain = 0
KHA3 010924Z 02014KT 06/M05 A3021 RMK A01 T00551050  RH  047%=      5-min Rain = 0
KHA3 010925Z 02013KT 06/M05 A3021 RMK A01 T00551050  RH  047%=      5-min Rain = 0
KHA3 010926Z 02014KT 05/M05 A3021 RMK A01 T00541050  RH  047%=      5-min Rain = 0
KHA3 010927Z 02013KT 05/M05 A3021 RMK A01 T00541050  RH  047%=      5-min Rain = 0
KHA3 010928Z 02013KT 05/M05 A302 RMK A01 T00541049  RH  047%=      5-min Rain = 0
KHA3 010929Z 02015KT 05/M05 A302 RMK A01 T00531050  RH  047%=      5-min Rain = 0
KHA3 010930Z 02015KT 05/M05 A302 RMK A01 T00531050  RH  047%=      5-min Rain = 0
KHA3 010931Z 02013KT 05/M05 A302 RMK A01 T00531050  RH  047%=      5-min Rain = 0
KHA3 010932Z 02014G20KT 05/M05 A302 RMK A01 T00531050  RH  047%=      5-min Rain = 0
KHA3 010933Z 02016KT 05/M05 A302 RMK A01 T00531049  RH  048%=      5-min Rain = 0
KHA3 010934Z 02014KT 05/M05 A302 RMK A01 T00521050  RH  048%=      5-min Rain = 0
KHA3 010935Z 03014KT 05/M05 A302 RMK A01 T00521049  RH  048%=      5-min Rain = 0
KHA3 010936Z 03013KT 05/M05 A302 RMK A01 T00521049  RH  048%=      5-min Rain = 0
KHA3 010937Z 03014KT 05/M05 A302 RMK A01 T00521049  RH  048%=      5-min Rain = 0
KHA3 010938Z 03016KT 05/M05 A302 RMK A01 T00521049  RH  048%=      5-min Rain = 0
KHA3 010939Z 02015KT 05/M05 A302 RMK A01 T00521050  RH  048%=      5-min Rain = 0
KHA3 010940Z 02014KT 05/M05 A302 RMK A01 T00521050  RH  048%=      5-min Rain = 0
KHA3 010941Z 02012KT 05/M05 A302 RMK A01 T00511050  RH  048%=      5-min Rain = 0
KHA3 010942Z 02012G17KT 05/M05 A3021 RMK A01 T00511049  RH  048%=      5-min Rain = 0
KHA3 010943Z 02016KT 05/M05 A3021 RMK A01 T00511049  RH  048%=      5-min Rain = 0
KHA3 010944Z 02015KT 05/M05 A3021 RMK A01 T00511050  RH  048%=      5-min Rain = 0
KHA3 010945Z 03011KT 05/M05 A3021 RMK A01 T00511050  RH  048%=      5-min Rain = 0
KHA3 010946Z 03014KT 05/M05 A3021 RMK A01 T00511049  RH  048%=      5-min Rain = 0
KHA3 010947Z 03014KT 05/M05 A3021 RMK A01 T00511049  RH  048%=      5-min Rain = 0
KHA3 010948Z 03017KT 05/M05 A3021 RMK A01 T00511050  RH  048%=      5-min Rain = 0
KHA3 010949Z 03014KT 05/M05 A3021 RMK A01 T00511050  RH  048%=      5-min Rain = 0
KHA3 010950Z 03012KT 05/M05 A3021 RMK A01 T00511050  RH  048%=      5-min Rain = 0
KHA3 010951Z 03013KT 05/M05 A3021 RMK A01 T00511049  RH  048%=      5-min Rain = 0
KHA3 010952Z 03012KT 05/M05 A3021 RMK A01 T00511049  RH  048%=      5-min Rain = 0
KHA3 010953Z 03013KT 05/M05 A3021 RMK A01 T00511049  RH  048%=      5-min Rain = 0
KHA3 010954Z 03010KT 05/M05 A3021 RMK A01 T00511049  RH  049%=      5-min Rain = 0
KHA3 010955Z 03012KT 05/M05 A3021 RMK A01 T00501049  RH  049%=      5-min Rain = 0
KHA3 010956Z 03013KT 05/M05 A3021 RMK A01 T00501049  RH  049%=      5-min Rain = 0
KHA3 010957Z 03012KT 05/M05 A3021 RMK A01 T00501049  RH  049%=      5-min Rain = 0
KHA3 010958Z 03012KT 05/M05 A3022 RMK A01 T00501049  RH  049%=      5-min Rain = 0
KHA3 010959Z 03011KT 05/M05 A3022 RMK A01 T00501049  RH  049%=      5-min Rain = 0
KHA3 011000Z 04011KT 05/M05 A3022 RMK A01 T00501049  RH  049%=      5-min Rain = 0
KHA3 011001Z 03010KT 05/M05 A3022 RMK A01 T00501049  RH  049%=      5-min Rain = 0
KHA3 011002Z 03012KT 05/M05 A3022 RMK A01 T00491049  RH  049%=      5-min Rain = 0
KHA3 011003Z 03012KT 05/M05 A3022 RMK A01 T00491049  RH  049%=      5-min Rain = 0
KHA3 011004Z 02014KT 05/M05 A3022 RMK A01 T00491050  RH  049%=      5-min Rain = 0
KHA3 011005Z 03015KT 05/M05 A3022 RMK A01 T00491050  RH  048%=      5-min Rain = 0
KHA3 011006Z 03015KT 05/M05 A3021 RMK A01 T00491051  RH  048%=      5-min Rain = 0
KHA3 011007Z 04015KT 05/M05 A3021 RMK A01 T00501051  RH  048%=      5-min Rain = 0
KHA3 011008Z 03015KT 05/M05 A3021 RMK A01 T00501051  RH  048%=      5-min Rain = 0
KHA3 011009Z 02012KT 05/M05 A3021 RMK A01 T00501050  RH  048%=      5-min Rain = 0
KHA3 011010Z 03015KT 05/M05 A3021 RMK A01 T00501050  RH  048%=      5-min Rain = 0
KHA3 011011Z 02014KT 05/M05 A3021 RMK A01 T00501050  RH  048%=      5-min Rain = 0
KHA3 011012Z 03012KT 05/M05 A3022 RMK A01 T00491050  RH  049%=      5-min Rain = 0
KHA3 011013Z 03014KT 05/M05 A3022 RMK A01 T00491050  RH  049%=      5-min Rain = 0
KHA3 011014Z 03012G17KT 05/M05 A3022 RMK A01 T00491051  RH  048%=      5-min Rain = 0
KHA3 011015Z 03011KT 05/M05 A3022 RMK A01 T00491051  RH  048%=      5-min Rain = 0
KHA3 011016Z 02012KT 05/M05 A3022 RMK A01 T00491050  RH  049%=      5-min Rain = 0
KHA3 011017Z 03015KT 05/M05 A3022 RMK A01 T00491051  RH  048%=      5-min Rain = 0
KHA3 011018Z 03014KT 05/M05 A3022 RMK A01 T00491051  RH  048%=      5-min Rain = 0
KHA3 011019Z 03013KT 05/M05 A3022 RMK A01 T00491051  RH  048%=      5-min Rain = 0
KHA3 011020Z 03011KT 05/M05 A3022 RMK A01 T00491051  RH  048%=      5-min Rain = 0
KHA3 011021Z 03011KT 05/M05 A3022 RMK A01 T00491050  RH  049%=      5-min Rain = 0
KHA3 011022Z 03015KT 05/M05 A3022 RMK A01 T00491051  RH  049%=      5-min Rain = 0
KHA3 011023Z 03014KT 05/M05 A3022 RMK A01 T00491052  RH  048%=      5-min Rain = 0
KHA3 011024Z 03014KT 05/M05 A3022 RMK A01 T00491052  RH  048%=      5-min Rain = 0
KHA3 011025Z 03014KT 05/M05 A3022 RMK A01 T00491052  RH  048%=      5-min Rain = 0
KHA3 011026Z 02013KT 05/M05 A3022 RMK A01 T00491052  RH  048%=      5-min Rain = 0
KHA3 011027Z 03014G19KT 05/M05 A3021 RMK A01 T00491052  RH  048%=      5-min Rain = 0
KHA3 011028Z 03015KT 05/M05 A3021 RMK A01 T00491052  RH  048%=      5-min Rain = 0
KHA3 011029Z 02015KT 05/M05 A3021 RMK A01 T00491052  RH  048%=      5-min Rain = 0
KHA3 011030Z 02015KT 05/M05 A3021 RMK A01 T00491051  RH  048%=      5-min Rain = 0
KHA3 011031Z 02012KT 05/M05 A3022 RMK A01 T00491051  RH  048%=      5-min Rain = 0
KHA3 011032Z 02014KT 05/M05 A3022 RMK A01 T00481051  RH  049%=      5-min Rain = 0
KHA3 011033Z 03017KT 05/M05 A3022 RMK A01 T00481051  RH  049%=      5-min Rain = 0
KHA3 011034Z 03016KT 05/M05 A3021 RMK A01 T00481052  RH  048%=      5-min Rain = 0
KHA3 011035Z 03016KT 05/M05 A3021 RMK A01 T00481052  RH  048%=      5-min Rain = 0
KHA3 011036Z 03015KT 05/M05 A3021 RMK A01 T00481051  RH  048%=      5-min Rain = 0
KHA3 011037Z 03014KT 05/M05 A3021 RMK A01 T00481051  RH  049%=      5-min Rain = 0
KHA3 011038Z 03014KT 05/M05 A3021 RMK A01 T00481051  RH  049%=      5-min Rain = 0
KHA3 011039Z 03015KT 05/M05 A3021 RMK A01 T00481051  RH  049%=      5-min Rain = 0
KHA3 011040Z 03017KT 05/M05 A3021 RMK A01 T00481051  RH  049%=      5-min Rain = 0
KHA3 011041Z 03015KT 05/M05 A3021 RMK A01 T00481051  RH  049%=      5-min Rain = 0
KHA3 011042Z 04015KT 05/M05 A3022 RMK A01 T00481051  RH  049%=      5-min Rain = 0
KHA3 011043Z 04016KT 05/M05 A3022 RMK A01 T00481051  RH  049%=      5-min Rain = 0
KHA3 011044Z 03015KT 05/M05 A3022 RMK A01 T00481051  RH  049%=      5-min Rain = 0
KHA3 011045Z 03014KT 05/M05 A3023 RMK A01 T00471051  RH  049%=      5-min Rain = 0
KHA3 011046Z 04013KT 05/M05 A3023 RMK A01 T00471051  RH  049%=      5-min Rain = 0
KHA3 011047Z 03013KT 05/M05 A3023 RMK A01 T00471050  RH  049%=      5-min Rain = 0
KHA3 011048Z 02015KT 05/M05 A3024 RMK A01 T00471050  RH  049%=      5-min Rain = 0
KHA3 011049Z 03015KT 05/M05 A3024 RMK A01 T00471051  RH  049%=      5-min Rain = 0
KHA3 011050Z 03014KT 05/M05 A3024 RMK A01 T00471050  RH  049%=      5-min Rain = 0
KHA3 011051Z 03012KT 05/M05 A3024 RMK A01 T00471049  RH  050%=      5-min Rain = 0
KHA3 011052Z 03012KT 05/M05 A3024 RMK A01 T00471049  RH  050%=      5-min Rain = 0
KHA3 011053Z 03011KT 05/M05 A3024 RMK A01 T00471049  RH  050%=      5-min Rain = 0
KHA3 011054Z 02012KT 05/M05 A3024 RMK A01 T00461048  RH  050%=      5-min Rain = 0
KHA3 011055Z 02014KT 05/M05 A3024 RMK A01 T00461049  RH  050%=      5-min Rain = 0
KHA3 011056Z 02014KT 05/M05 A3024 RMK A01 T00461049  RH  050%=      5-min Rain = 0
KHA3 011057Z 02014KT 05/M05 A3024 RMK A01 T00461048  RH  050%=      5-min Rain = 0
KHA3 011058Z 02011KT 05/M05 A3024 RMK A01 T00461048  RH  051%=      5-min Rain = 0
KHA3 011059Z 03012KT 05/M05 A3025 RMK A01 T00461048  RH  051%=      5-min Rain = 0
KHA3 011100Z 03011KT 05/M05 A3025 RMK A01 T00461047  RH  051%=      5-min Rain = 0
KHA3 011101Z 03012KT 05/M05 A3026 RMK A01 T00461047  RH  051%=      5-min Rain = 0
KHA3 011102Z 02010KT 05/M05 A3026 RMK A01 T00451047  RH  051%=      5-min Rain = 0
KHA3 011103Z 03011KT 05/M05 A3026 RMK A01 T00461047  RH  051%=      5-min Rain = 0
KHA3 011104Z 03010KT 05/M05 A3027 RMK A01 T00461047  RH  051%=      5-min Rain = 0
KHA3 011105Z 03008KT 05/M05 A3027 RMK A01 T00451047  RH  051%=      5-min Rain = 0
KHA3 011106Z 02007KT 05/M05 A3027 RMK A01 T00451046  RH  051%=      5-min Rain = 0
KHA3 011107Z 02011KT 05/M05 A3027 RMK A01 T00451046  RH  052%=      5-min Rain = 0
KHA3 011108Z 04011KT 05/M05 A3027 RMK A01 T00451046  RH  052%=      5-min Rain = 0
KHA3 011109Z 01009KT 05/M05 A3027 RMK A01 T00461045  RH  052%=      5-min Rain = 0
KHA3 011110Z 01008KT 05/M05 A3027 RMK A01 T00451045  RH  052%=      5-min Rain = 0
KHA3 011111Z 01008KT 05/M05 A3027 RMK A01 T00451045  RH  052%=      5-min Rain = 0
KHA3 011112Z 02007KT 05/M05 A3027 RMK A01 T00451045  RH  052%=      5-min Rain = 0
KHA3 011113Z 02008KT 04/M04 A3027 RMK A01 T00441044  RH  052%=      5-min Rain = 0
KHA3 011114Z 03009KT 04/M04 A3026 RMK A01 T00441044  RH  053%=      5-min Rain = 0
KHA3 011115Z 02010KT 04/M04 A3026 RMK A01 T00441044  RH  053%=      5-min Rain = 0
KHA3 011116Z 02009KT 04/M04 A3026 RMK A01 T00441044  RH  053%=      5-min Rain = 0
KHA3 011117Z 02011KT 04/M04 A3026 RMK A01 T00441044  RH  053%=      5-min Rain = 0
KHA3 011118Z 02010KT 04/M04 A3026 RMK A01 T00441044  RH  053%=      5-min Rain = 0
KHA3 011119Z 02011KT 04/M04 A3026 RMK A01 T00441044  RH  053%=      5-min Rain = 0
KHA3 011120Z 02014KT 04/M04 A3026 RMK A01 T00441043  RH  053%=      5-min Rain = 0
KHA3 011121Z 02014KT 04/M04 A3026 RMK A01 T00441043  RH  053%=      5-min Rain = 0
KHA3 011122Z 02012KT 04/M04 A3026 RMK A01 T00441043  RH  053%=      5-min Rain = 0
KHA3 011123Z 01011KT 04/M04 A3026 RMK A01 T00441042  RH  054%=      5-min Rain = 0
KHA3 011124Z 01013KT 04/M04 A3026 RMK A01 T00441042  RH  054%=      5-min Rain = 0
KHA3 011125Z 01011KT 04/M04 A3025 RMK A01 T00441042  RH  054%=      5-min Rain = 0
KHA3 011126Z 01014KT 04/M04 A3026 RMK A01 T00441042  RH  054%=      5-min Rain = 0
KHA3 011127Z 01013KT 04/M04 A3026 RMK A01 T00441042  RH  054%=      5-min Rain = 0
KHA3 011128Z 02011KT 04/M04 A3026 RMK A01 T00431042  RH  054%=      5-min Rain = 0
KHA3 011129Z 01014KT 04/M04 A3026 RMK A01 T00431041  RH  054%=      5-min Rain = 0
KHA3 011130Z 01014G19KT 04/M04 A3026 RMK A01 T00431041  RH  054%=      5-min Rain = 0
KHA3 011131Z 02014KT 04/M04 A3025 RMK A01 T00431041  RH  054%=      5-min Rain = 0
KHA3 011132Z 02014KT 04/M04 A3025 RMK A01 T00431041  RH  054%=      5-min Rain = 0
KHA3 011133Z 02012KT 04/M04 A3025 RMK A01 T00421041  RH  055%=      5-min Rain = 0
KHA3 011134Z 02011KT 04/M04 A3025 RMK A01 T00421041  RH  055%=      5-min Rain = 0
KHA3 011135Z 02011KT 04/M04 A3025 RMK A01 T00421041  RH  055%=      5-min Rain = 0
KHA3 011136Z 02011KT 04/M04 A3025 RMK A01 T00411041  RH  055%=      5-min Rain = 0
KHA3 011137Z 02011KT 04/M04 A3025 RMK A01 T00411041  RH  055%=      5-min Rain = 0
KHA3 011138Z 02012KT 04/M04 A3025 RMK A01 T00401041  RH  056%=      5-min Rain = 0
KHA3 011139Z 02012KT 04/M04 A3026 RMK A01 T00401040  RH  056%=      5-min Rain = 0
KHA3 011140Z 03011KT 04/M04 A3026 RMK A01 T00391040  RH  056%=      5-min Rain = 0
KHA3 011141Z 03009KT 04/M04 A3026 RMK A01 T00391040  RH  056%=      5-min Rain = 0
KHA3 011142Z 03009KT 04/M04 A3026 RMK A01 T00391040  RH  056%=      5-min Rain = 0
KHA3 011143Z 04011KT 04/M04 A3026 RMK A01 T00381040  RH  057%=      5-min Rain = 0
KHA3 011144Z 04010KT 04/M04 A3026 RMK A01 T00391040  RH  057%=      5-min Rain = 0
KHA3 011145Z 04009KT 04/M04 A3027 RMK A01 T00391040  RH  057%=      5-min Rain = 0
KHA3 011146Z 04010KT 04/M04 A3027 RMK A01 T00391040  RH  057%=      5-min Rain = 0
KHA3 011147Z 03010KT 04/M04 A3027 RMK A01 T00391040  RH  057%=      5-min Rain = 0
KHA3 011148Z 04010KT 04/M04 A3027 RMK A01 T00381040  RH  057%=      5-min Rain = 0
KHA3 011149Z 04010KT 04/M04 A3026 RMK A01 T00391039  RH  057%=      5-min Rain = 0
KHA3 011150Z 04009KT 04/M04 A3026 RMK A01 T00391038  RH  057%=      5-min Rain = 0
KHA3 011151Z 04009KT 04/M04 A3026 RMK A01 T00381038  RH  057%=      5-min Rain = 0
KHA3 011152Z 05010KT 04/M04 A3026 RMK A01 T00381038  RH  057%=      5-min Rain = 0
KHA3 011153Z 04011KT 04/M04 A3026 RMK A01 T00381039  RH  057%=      5-min Rain = 0
KHA3 011154Z 04011KT 04/M04 A3026 RMK A01 T00381038  RH  057%=      5-min Rain = 0
KHA3 011155Z 04011KT 04/M04 A3026 RMK A01 T00381038  RH  057%=      5-min Rain = 0
KHA3 011156Z 04011KT 04/M04 A3026 RMK A01 T00391038  RH  057%=      5-min Rain = 0
KHA3 011157Z 05009G14KT 04/M04 A3026 RMK A01 T00391038  RH  057%=      5-min Rain = 0
KHA3 011158Z 05012KT 04/M04 A3026 RMK A01 T00391038  RH  057%=      5-min Rain = 0
KHA3 011159Z 05010KT 04/M04 A3026 RMK A01 T00391038  RH  057%=      5-min Rain = 0
KHA3 011200Z 05011KT 04/M04 A3026 RMK A01 T00391037  RH  058%=      5-min Rain = 0
KHA3 011201Z 05011KT 04/M04 A3026 RMK A01 T00391037  RH  058%=      5-min Rain = 0
KHA3 011202Z 05012KT 04/M04 A3026 RMK A01 T00381037  RH  058%=      5-min Rain = 0
KHA3 011203Z 05012KT 04/M04 A3026 RMK A01 T00381037  RH  058%=      5-min Rain = 0
KHA3 011204Z 05011KT 04/M04 A3026 RMK A01 T00381037  RH  058%=      5-min Rain = 0
KHA3 011205Z 06010KT 04/M04 A3026 RMK A01 T00391037  RH  058%=      5-min Rain = 0
KHA3 011206Z 06010KT 04/M04 A3027 RMK A01 T00391036  RH  058%=      5-min Rain = 0
KHA3 011207Z 06009KT 04/M04 A3027 RMK A01 T00391036  RH  058%=      5-min Rain = 0
KHA3 011208Z 06009KT 04/M04 A3027 RMK A01 T00391036  RH  058%=      5-min Rain = 0
KHA3 011209Z 05008KT 04/M04 A3027 RMK A01 T00391036  RH  058%=      5-min Rain = 0
KHA3 011210Z 06008KT 04/M04 A3028 RMK A01 T00391036  RH  058%=      5-min Rain = 0
KHA3 011211Z 04008KT 04/M04 A3028 RMK A01 T00391035  RH  059%=      5-min Rain = 0
KHA3 011212Z 04009KT 04/M04 A3028 RMK A01 T00381036  RH  059%=      5-min Rain = 0
KHA3 011213Z 04008KT 04/M04 A3028 RMK A01 T00381036  RH  059%=      5-min Rain = 0
KHA3 011214Z 04009KT 04/M04 A3028 RMK A01 T00381035  RH  059%=      5-min Rain = 0
KHA3 011215Z 04009KT 04/M04 A3028 RMK A01 T00381035  RH  059%=      5-min Rain = 0
KHA3 011216Z 04009KT 04/M04 A3028 RMK A01 T00381035  RH  059%=      5-min Rain = 0
KHA3 011217Z 04008KT 04/M04 A3028 RMK A01 T00381035  RH  059%=      5-min Rain = 0
KHA3 011218Z 04009KT 04/M04 A3028 RMK A01 T00381035  RH  059%=      5-min Rain = 0
KHA3 011219Z 04010KT 04/M04 A3028 RMK A01 T00381035  RH  059%=      5-min Rain = 0
KHA3 011220Z 04010KT 04/M03 A3028 RMK A01 T00391034  RH  059%=      5-min Rain = 0
KHA3 011221Z 05011KT 04/M03 A3028 RMK A01 T00391034  RH  059%=      5-min Rain = 0
KHA3 011222Z 04010KT 04/M03 A3029 RMK A01 T00391034  RH  059%=      5-min Rain = 0
KHA3 011223Z 04009KT 04/M03 A3029 RMK A01 T00391034  RH  059%=      5-min Rain = 0
KHA3 011224Z 04011KT 04/M03 A3029 RMK A01 T00391034  RH  059%=      5-min Rain = 0
KHA3 011225Z 04009KT 04/M03 A3029 RMK A01 T00391034  RH  059%=      5-min Rain = 0
KHA3 011226Z 04010KT 04/M03 A3029 RMK A01 T00391034  RH  059%=      5-min Rain = 0
KHA3 011227Z 03011KT 04/M03 A3028 RMK A01 T00391034  RH  059%=      5-min Rain = 0
KHA3 011228Z 04011KT 04/M03 A3028 RMK A01 T00381034  RH  059%=      5-min Rain = 0
KHA3 011229Z 04012KT 04/M03 A3028 RMK A01 T00391034  RH  059%=      5-min Rain = 0
KHA3 011230Z 03010KT 04/M03 A3029 RMK A01 T00391034  RH  059%=      5-min Rain = 0
KHA3 011231Z 04008KT 04/M03 A3029 RMK A01 T00391033  RH  059%=      5-min Rain = 0
KHA3 011232Z 04010KT 04/M03 A3029 RMK A01 T00381033  RH  060%=      5-min Rain = 0
KHA3 011233Z 04011KT 04/M03 A3029 RMK A01 T00381033  RH  060%=      5-min Rain = 0
KHA3 011234Z 05012KT 04/M03 A3029 RMK A01 T00381034  RH  060%=      5-min Rain = 0
KHA3 011235Z 05012KT 04/M03 A3029 RMK A01 T00381034  RH  059%=      5-min Rain = 0
KHA3 011236Z 04010KT 04/M03 A3029 RMK A01 T00381033  RH  059%=      5-min Rain = 0
KHA3 011237Z 04011KT 04/M03 A3029 RMK A01 T00381033  RH  060%=      5-min Rain = 0
KHA3 011238Z 04011KT 04/M03 A3029 RMK A01 T00381033  RH  060%=      5-min Rain = 0
KHA3 011239Z 04010KT 04/M03 A3029 RMK A01 T00381033  RH  060%=      5-min Rain = 0
KHA3 011240Z 04008KT 04/M03 A303 RMK A01 T00381033  RH  060%=      5-min Rain = 0
KHA3 011241Z 04010KT 04/M03 A303 RMK A01 T00381032  RH  060%=      5-min Rain = 0
KHA3 011242Z 04010KT 04/M03 A303 RMK A01 T00381033  RH  060%=      5-min Rain = 0
KHA3 011243Z 03008KT 04/M03 A303 RMK A01 T00381032  RH  060%=      5-min Rain = 0
KHA3 011244Z 03010KT 04/M03 A303 RMK A01 T00381032  RH  060%=      5-min Rain = 0
KHA3 011245Z 03010KT 04/M03 A303 RMK A01 T00381032  RH  060%=      5-min Rain = 0
KHA3 011246Z 02009KT 04/M03 A303 RMK A01 T00381033  RH  060%=      5-min Rain = 0
KHA3 011247Z 03010KT 04/M03 A3031 RMK A01 T00381033  RH  060%=      5-min Rain = 0
KHA3 011248Z 03009KT 04/M03 A3031 RMK A01 T00381032  RH  060%=      5-min Rain = 0
KHA3 011249Z 02010KT 04/M03 A3031 RMK A01 T00371033  RH  060%=      5-min Rain = 0
KHA3 011250Z 03010KT 04/M03 A303 RMK A01 T00371033  RH  060%=      5-min Rain = 0
KHA3 011251Z 03009KT 04/M03 A303 RMK A01 T00371033  RH  060%=      5-min Rain = 0
KHA3 011252Z 03010KT 04/M03 A303 RMK A01 T00371032  RH  060%=      5-min Rain = 0
KHA3 011253Z 03008KT 04/M03 A303 RMK A01 T00371032  RH  060%=      5-min Rain = 0
KHA3 011254Z 03008KT 04/M03 A303 RMK A01 T00371032  RH  061%=      5-min Rain = 0
KHA3 011255Z 03008KT 04/M03 A303 RMK A01 T00361032  RH  061%=      5-min Rain = 0
KHA3 011256Z 03008KT 04/M03 A303 RMK A01 T00361032  RH  061%=      5-min Rain = 0
KHA3 011257Z 04008KT 04/M03 A3029 RMK A01 T00361032  RH  061%=      5-min Rain = 0
KHA3 011258Z 03009KT 04/M03 A3029 RMK A01 T00351032  RH  061%=      5-min Rain = 0
KHA3 011259Z 03010KT 04/M03 A3029 RMK A01 T00351032  RH  061%=      5-min Rain = 0
KHA3 011300Z 03012KT 04/M03 A3029 RMK A01 T00351032  RH  061%=      5-min Rain = 0
KHA3 011301Z 03009KT 04/M03 A3029 RMK A01 T00351033  RH  061%=      5-min Rain = 0
KHA3 011302Z 03009KT 04/M03 A303 RMK A01 T00351032  RH  061%=      5-min Rain = 0
KHA3 011303Z 02011KT 04/M03 A303 RMK A01 T00351032  RH  062%=      5-min Rain = 0
KHA3 011304Z 03007KT 03/M03 A303 RMK A01 T00341032  RH  062%=      5-min Rain = 0
KHA3 011305Z 02007KT 03/M03 A303 RMK A01 T00341032  RH  062%=      5-min Rain = 0
KHA3 011306Z 02010KT 03/M03 A303 RMK A01 T00341032  RH  062%=      5-min Rain = 0
KHA3 011307Z 03008KT 03/M03 A303 RMK A01 T00331033  RH  062%=      5-min Rain = 0
KHA3 011308Z 02009KT 03/M03 A303 RMK A01 T00341032  RH  062%=      5-min Rain = 0
KHA3 011309Z 02008KT 03/M03 A303 RMK A01 T00331032  RH  062%=      5-min Rain = 0
KHA3 011310Z 01010KT 03/M03 A303 RMK A01 T00331032  RH  062%=      5-min Rain = 0
KHA3 011311Z 01012KT 03/M03 A3031 RMK A01 T00321033  RH  062%=      5-min Rain = 0
KHA3 011312Z 02012KT 03/M03 A303 RMK A01 T00331032  RH  062%=      5-min Rain = 0
KHA3 011313Z 02012KT 03/M03 A303 RMK A01 T00331032  RH  062%=      5-min Rain = 0
KHA3 011314Z 02009G14KT 03/M03 A303 RMK A01 T00331032  RH  062%=      5-min Rain = 0
KHA3 011315Z 02010KT 03/M03 A303 RMK A01 T00321032  RH  063%=      5-min Rain = 0
KHA3 011316Z 02010KT 03/M03 A303 RMK A01 T00311032  RH  063%=      5-min Rain = 0
KHA3 011317Z 02010KT 03/M03 A303 RMK A01 T00311032  RH  063%=      5-min Rain = 0
KHA3 011318Z 03010KT 03/M03 A303 RMK A01 T00301032  RH  063%=      5-min Rain = 0
KHA3 011319Z 03010KT 03/M03 A303 RMK A01 T00301032  RH  064%=      5-min Rain = 0
KHA3 011320Z 02009KT 03/M03 A303 RMK A01 T00301032  RH  064%=      5-min Rain = 0
KHA3 011321Z 02010KT 03/M03 A303 RMK A01 T00291032  RH  064%=      5-min Rain = 0
KHA3 011322Z 03011KT 03/M03 A303 RMK A01 T00291032  RH  064%=      5-min Rain = 0
KHA3 011323Z 03010KT 03/M03 A303 RMK A01 T00291032  RH  064%=      5-min Rain = 0
KHA3 011324Z 03010KT 03/M03 A3031 RMK A01 T00291032  RH  064%=      5-min Rain = 0
KHA3 011325Z 03009KT 03/M03 A3031 RMK A01 T00291032  RH  064%=      5-min Rain = 0
KHA3 011326Z 03012KT 03/M03 A3031 RMK A01 T00291032  RH  064%=      5-min Rain = 0
KHA3 011327Z 03010KT 03/M03 A3031 RMK A01 T00291032  RH  064%=      5-min Rain = 0
KHA3 011328Z 03009KT 03/M03 A3031 RMK A01 T00291031  RH  064%=      5-min Rain = 0
KHA3 011329Z 03008KT 03/M03 A3031 RMK A01 T00291031  RH  065%=      5-min Rain = 0
KHA3 011330Z 03008KT 03/M03 A3031 RMK A01 T00291031  RH  065%=      5-min Rain = 0
KHA3 011331Z 03009KT 03/M03 A3031 RMK A01 T00281031  RH  065%=      5-min Rain = 0
KHA3 011332Z 03008KT 03/M03 A3031 RMK A01 T00281031  RH  065%=      5-min Rain = 0
KHA3 011333Z 03011KT 03/M03 A3032 RMK A01 T00291031  RH  065%=      5-min Rain = 0
KHA3 011334Z 03009KT 03/M03 A3032 RMK A01 T00291031  RH  065%=      5-min Rain = 0
KHA3 011335Z 03011KT 03/M03 A3032 RMK A01 T00301031  RH  064%=      5-min Rain = 0
KHA3 011336Z 03009KT 03/M03 A3032 RMK A01 T00301031  RH  064%=      5-min Rain = 0
KHA3 011337Z 03010KT 03/M03 A3032 RMK A01 T00301030  RH  064%=      5-min Rain = 0
KHA3 011338Z 03009KT 03/M03 A3033 RMK A01 T00301030  RH  064%=      5-min Rain = 0
KHA3 011339Z 02008KT 03/M03 A3033 RMK A01 T00311030  RH  064%=      5-min Rain = 0
KHA3 011340Z 03008KT 03/M03 A3033 RMK A01 T00311029  RH  065%=      5-min Rain = 0
KHA3 011341Z 02007KT 03/M03 A3033 RMK A01 T00311029  RH  065%=      5-min Rain = 0
KHA3 011342Z 02008KT 03/M03 A3033 RMK A01 T00311029  RH  065%=      5-min Rain = 0
KHA3 011343Z 03009KT 03/M03 A3034 RMK A01 T00321029  RH  064%=      5-min Rain = 0
KHA3 011344Z 02009KT 03/M03 A3034 RMK A01 T00321029  RH  064%=      5-min Rain = 0
KHA3 011345Z 02007KT 03/M03 A3034 RMK A01 T00321029  RH  064%=      5-min Rain = 0
KHA3 011346Z 02007KT 03/M03 A3034 RMK A01 T00321029  RH  064%=      5-min Rain = 0
KHA3 011347Z 02006KT 03/M03 A3034 RMK A01 T00331028  RH  065%=      5-min Rain = 0
KHA3 011348Z 02007KT 03/M03 A3034 RMK A01 T00331028  RH  064%=      5-min Rain = 0
KHA3 011349Z 01007KT 03/M03 A3034 RMK A01 T00331029  RH  064%=      5-min Rain = 0
KHA3 011350Z 01007KT 03/M03 A3034 RMK A01 T00331029  RH  064%=      5-min Rain = 0
KHA3 011351Z 01006KT 03/M03 A3034 RMK A01 T00331028  RH  064%=      5-min Rain = 0
KHA3 011352Z 01007KT 03/M03 A3034 RMK A01 T00331028  RH  064%=      5-min Rain = 0
KHA3 011353Z 01007KT 03/M03 A3034 RMK A01 T00331028  RH  064%=      5-min Rain = 0
KHA3 011354Z 01007KT 03/M03 A3034 RMK A01 T00331029  RH  064%=      5-min Rain = 0
KHA3 011355Z 02007KT 03/M03 A3034 RMK A01 T00331028  RH  064%=      5-min Rain = 0
KHA3 011356Z 02007KT 03/M03 A3034 RMK A01 T00331028  RH  064%=      5-min Rain = 0
KHA3 011357Z 02008KT 03/M03 A3034 RMK A01 T00331029  RH  064%=      5-min Rain = 0
KHA3 011358Z 02009KT 03/M03 A3034 RMK A01 T00331029  RH  064%=      5-min Rain = 0
KHA3 011359Z 02008KT 03/M03 A3034 RMK A01 T00331029  RH  064%=      5-min Rain = 0
KHA3 011400Z 03006KT 03/M03 A3034 RMK A01 T00331028  RH  064%=      5-min Rain = 0
KHA3 011401Z 03007KT 03/M03 A3034 RMK A01 T00341027  RH  064%=      5-min Rain = 0
KHA3 011402Z 02007KT 03/M03 A3034 RMK A01 T00341028  RH  064%=      5-min Rain = 0
KHA3 011403Z 02008KT 03/M03 A3034 RMK A01 T00341028  RH  064%=      5-min Rain = 0
KHA3 011404Z 03008KT 03/M03 A3034 RMK A01 T00341028  RH  064%=      5-min Rain = 0
KHA3 011405Z 03007KT 03/M03 A3034 RMK A01 T00341027  RH  064%=      5-min Rain = 0
KHA3 011406Z 03007KT 03/M03 A3034 RMK A01 T00341026  RH  064%=      5-min Rain = 0
KHA3 011407Z 02007KT 03/M03 A3034 RMK A01 T00341028  RH  064%=      5-min Rain = 0
KHA3 011408Z 02008KT 03/M03 A3034 RMK A01 T00341028  RH  064%=      5-min Rain = 0
KHA3 011409Z 03008KT 03/M03 A3034 RMK A01 T00341028  RH  064%=      5-min Rain = 0
KHA3 011410Z 02009KT 03/M03 A3034 RMK A01 T00341028  RH  064%=      5-min Rain = 0
KHA3 011411Z 03008KT 03/M03 A3034 RMK A01 T00341028  RH  064%=      5-min Rain = 0
KHA3 011412Z 02009KT 03/M03 A3034 RMK A01 T00341027  RH  064%=      5-min Rain = 0
KHA3 011413Z 03008KT 04/M03 A3034 RMK A01 T00351028  RH  064%=      5-min Rain = 0
KHA3 011414Z 02010KT 04/M03 A3034 RMK A01 T00351027  RH  064%=      5-min Rain = 0
KHA3 011415Z 03008KT 04/M03 A3034 RMK A01 T00351028  RH  064%=      5-min Rain = 0
KHA3 011416Z 02006KT 04/M03 A3034 RMK A01 T00351027  RH  064%=      5-min Rain = 0
KHA3 011417Z 02007KT 04/M03 A3034 RMK A01 T00351026  RH  064%=      5-min Rain = 0
KHA3 011418Z 02007KT 04/M03 A3034 RMK A01 T00361026  RH  064%=      5-min Rain = 0
KHA3 011419Z 01008KT 04/M03 A3034 RMK A01 T00371027  RH  063%=      5-min Rain = 0
KHA3 011420Z 02009KT 04/M03 A3034 RMK A01 T00361027  RH  063%=      5-min Rain = 0
KHA3 011421Z 02010KT 04/M03 A3034 RMK A01 T00361028  RH  063%=      5-min Rain = 0
KHA3 011422Z 02009KT 04/M03 A3034 RMK A01 T00361028  RH  063%=      5-min Rain = 0
KHA3 011423Z 02009KT 04/M03 A3034 RMK A01 T00361027  RH  063%=      5-min Rain = 0
KHA3 011424Z 02009KT 04/M03 A3034 RMK A01 T00351027  RH  063%=      5-min Rain = 0
KHA3 011425Z 02011KT 04/M03 A3034 RMK A01 T00351027  RH  063%=      5-min Rain = 0
KHA3 011426Z 02009KT 04/M03 A3034 RMK A01 T00351028  RH  063%=      5-min Rain = 0
KHA3 011427Z 03011KT 04/M03 A3034 RMK A01 T00351027  RH  064%=      5-min Rain = 0
KHA3 011428Z 02010KT 04/M03 A3033 RMK A01 T00361026  RH  064%=      5-min Rain = 0
KHA3 011429Z 02009KT 04/M03 A3033 RMK A01 T00361026  RH  064%=      5-min Rain = 0
KHA3 011430Z 02010KT 04/M03 A3033 RMK A01 T00361026  RH  064%=      5-min Rain = 0
KHA3 011431Z 02013KT 04/M03 A3033 RMK A01 T00371026  RH  064%=      5-min Rain = 0
KHA3 011432Z 02013KT 04/M03 A3033 RMK A01 T00371026  RH  064%=      5-min Rain = 0
KHA3 011433Z 02011KT 04/M03 A3033 RMK A01 T00361027  RH  063%=      5-min Rain = 0
KHA3 011434Z 02008KT 04/M03 A3034 RMK A01 T00361026  RH  064%=      5-min Rain = 0
KHA3 011435Z 03008KT 04/M03 A3034 RMK A01 T00361025  RH  064%=      5-min Rain = 0
KHA3 011436Z 03009KT 04/M03 A3034 RMK A01 T00371025  RH  064%=      5-min Rain = 0
KHA3 011437Z 02008KT 04/M03 A3034 RMK A01 T00361026  RH  064%=      5-min Rain = 0
KHA3 011438Z 03008KT 04/M03 A3035 RMK A01 T00361025  RH  064%=      5-min Rain = 0
KHA3 011439Z 03010KT 04/M03 A3035 RMK A01 T00361025  RH  064%=      5-min Rain = 0
KHA3 011440Z 03009KT 04/M03 A3035 RMK A01 T00361026  RH  064%=      5-min Rain = 0
KHA3 011441Z 03007KT 04/M03 A3035 RMK A01 T00361026  RH  064%=      5-min Rain = 0
KHA3 011442Z 03008KT 04/M03 A3035 RMK A01 T00371025  RH  064%=      5-min Rain = 0
KHA3 011443Z 03006KT 04/M03 A3035 RMK A01 T00371025  RH  064%=      5-min Rain = 0
KHA3 011444Z 04008KT 04/M02 A3035 RMK A01 T00371024  RH  064%=      5-min Rain = 0
KHA3 011445Z 02009KT 04/M02 A3035 RMK A01 T00381024  RH  064%=      5-min Rain = 0
KHA3 011446Z 03011KT 04/M03 A3035 RMK A01 T00381025  RH  064%=      5-min Rain = 0
KHA3 011447Z 04011KT 04/M02 A3036 RMK A01 T00381024  RH  064%=      5-min Rain = 0
KHA3 011448Z 04008KT 04/M02 A3036 RMK A01 T00381024  RH  064%=      5-min Rain = 0
KHA3 011449Z 04009KT 04/M02 A3036 RMK A01 T00381024  RH  064%=      5-min Rain = 0
KHA3 011450Z 03009KT 04/M03 A3036 RMK A01 T00381025  RH  064%=      5-min Rain = 0
KHA3 011451Z 04009KT 04/M02 A3036 RMK A01 T00381024  RH  064%=      5-min Rain = 0
KHA3 011452Z 03009KT 04/M02 A3036 RMK A01 T00381024  RH  064%=      5-min Rain = 0
KHA3 011453Z 04009KT 04/M02 A3036 RMK A01 T00381024  RH  064%=      5-min Rain = 0
KHA3 011454Z 04009KT 04/M02 A3036 RMK A01 T00381024  RH  064%=      5-min Rain = 0
KHA3 011455Z 05008KT 04/M02 A3036 RMK A01 T00381023  RH  064%=      5-min Rain = 0
KHA3 011456Z 04008KT 04/M02 A3036 RMK A01 T00391022  RH  064%=      5-min Rain = 0
KHA3 011457Z 04008KT 04/M02 A3036 RMK A01 T00401022  RH  064%=      5-min Rain = 0
KHA3 011458Z 02009KT 04/M02 A3036 RMK A01 T00401022  RH  064%=      5-min Rain = 0
KHA3 011459Z 03009KT 04/M02 A3036 RMK A01 T00411022  RH  064%=      5-min Rain = 0
KHA3 011500Z 03009KT 04/M02 A3036 RMK A01 T00411021  RH  064%=      5-min Rain = 0
KHA3 011501Z 03009KT 04/M02 A3036 RMK A01 T00411022  RH  064%=      5-min Rain = 0
KHA3 011502Z 03008KT 04/M02 A3036 RMK A01 T00411022  RH  063%=      5-min Rain = 0
KHA3 011503Z 03008KT 04/M02 A3036 RMK A01 T00411022  RH  063%=      5-min Rain = 0
KHA3 011504Z 02008KT 04/M02 A3036 RMK A01 T00411022  RH  064%=      5-min Rain = 0
KHA3 011505Z 03008KT 04/M02 A3037 RMK A01 T00421021  RH  064%=      5-min Rain = 0
KHA3 011506Z 02009KT 04/M02 A3037 RMK A01 T00421021  RH  064%=      5-min Rain = 0
KHA3 011507Z 02011KT 04/M02 A3037 RMK A01 T00421021  RH  063%=      5-min Rain = 0
KHA3 011508Z 02012KT 04/M02 A3037 RMK A01 T00421021  RH  063%=      5-min Rain = 0
KHA3 011509Z 04010KT 04/M02 A3037 RMK A01 T00431021  RH  063%=      5-min Rain = 0
KHA3 011510Z 04010KT 04/M02 A3037 RMK A01 T00421022  RH  063%=      5-min Rain = 0
KHA3 011511Z 04009KT 04/M02 A3037 RMK A01 T00421021  RH  063%=      5-min Rain = 0
KHA3 011512Z 04009KT 04/M02 A3037 RMK A01 T00431020  RH  064%=      5-min Rain = 0
KHA3 011513Z 04009KT 04/M02 A3037 RMK A01 T00441020  RH  063%=      5-min Rain = 0
KHA3 011514Z 03009KT 05/M02 A3036 RMK A01 T00451019  RH  063%=      5-min Rain = 0
KHA3 011515Z 02008KT 05/M02 A3036 RMK A01 T00451020  RH  063%=      5-min Rain = 0
KHA3 011516Z 03008KT 05/M02 A3036 RMK A01 T00451019  RH  063%=      5-min Rain = 0
KHA3 011517Z 02007KT 05/M02 A3036 RMK A01 T00461019  RH  063%=      5-min Rain = 0
KHA3 011518Z 03008KT 05/M02 A3036 RMK A01 T00471018  RH  063%=      5-min Rain = 0
KHA3 011519Z 03009KT 05/M02 A3036 RMK A01 T00471019  RH  062%=      5-min Rain = 0
KHA3 011520Z 02009KT 05/M02 A3036 RMK A01 T00471019  RH  062%=      5-min Rain = 0
KHA3 011521Z 02010KT 05/M02 A3036 RMK A01 T00471020  RH  062%=      5-min Rain = 0
KHA3 011522Z 03010KT 05/M02 A3036 RMK A01 T00461020  RH  062%=      5-min Rain = 0
KHA3 011523Z 03011KT 05/M02 A3036 RMK A01 T00471019  RH  062%=      5-min Rain = 0
KHA3 011524Z 03013KT 05/M02 A3036 RMK A01 T00471018  RH  063%=      5-min Rain = 0
KHA3 011525Z 03011KT 05/M02 A3036 RMK A01 T00481019  RH  062%=      5-min Rain = 0
KHA3 011526Z 03009KT 05/M02 A3036 RMK A01 T00491017  RH  062%=      5-min Rain = 0
KHA3 011527Z 02011KT 05/M02 A3036 RMK A01 T00511015  RH  062%=      5-min Rain = 0
KHA3 011528Z 03010KT 05/M02 A3036 RMK A01 T00511018  RH  061%=      5-min Rain = 0
KHA3 011529Z 03009KT 05/M02 A3036 RMK A01 T00501018  RH  061%=      5-min Rain = 0
KHA3 011530Z 02010KT 05/M02 A3036 RMK A01 T00511017  RH  062%=      5-min Rain = 0
KHA3 011531Z 03011KT 05/M02 A3036 RMK A01 T00521017  RH  061%=      5-min Rain = 0
KHA3 011532Z 03010KT 05/M02 A3036 RMK A01 T00521017  RH  061%=      5-min Rain = 0
KHA3 011533Z 04011KT 05/M02 A3036 RMK A01 T00511018  RH  061%=      5-min Rain = 0
KHA3 011534Z 04009KT 05/M02 A3036 RMK A01 T00511018  RH  061%=      5-min Rain = 0
KHA3 011535Z 03010KT 05/M02 A3036 RMK A01 T00521016  RH  061%=      5-min Rain = 0
KHA3 011536Z 04011KT 05/M02 A3036 RMK A01 T00521017  RH  061%=      5-min Rain = 0
KHA3 011537Z 03012KT 05/M02 A3036 RMK A01 T00511019  RH  061%=      5-min Rain = 0
KHA3 011538Z 02011KT 05/M02 A3036 RMK A01 T00511018  RH  061%=      5-min Rain = 0
KHA3 011539Z 03012KT 05/M02 A3036 RMK A01 T00501019  RH  061%=      5-min Rain = 0
KHA3 011540Z 03011KT 05/M02 A3036 RMK A01 T00491020  RH  061%=      5-min Rain = 0
KHA3 011541Z 03010KT 05/M02 A3036 RMK A01 T00491018  RH  062%=      5-min Rain = 0
KHA3 011542Z 02012KT 05/M02 A3036 RMK A01 T00491018  RH  062%=      5-min Rain = 0
KHA3 011543Z 03012KT 05/M02 A3036 RMK A01 T00501017  RH  062%=      5-min Rain = 0
KHA3 011544Z 04011KT 05/M02 A3036 RMK A01 T00501018  RH  061%=      5-min Rain = 0
KHA3 011545Z 03009KT 05/M02 A3036 RMK A01 T00501017  RH  062%=      5-min Rain = 0
KHA3 011546Z 03010KT 05/M02 A3037 RMK A01 T00501017  RH  062%=      5-min Rain = 0
KHA3 011547Z 02012KT 05/M02 A3037 RMK A01 T00511017  RH  062%=      5-min Rain = 0
KHA3 011548Z 02012KT 05/M02 A3037 RMK A01 T00501018  RH  062%=      5-min Rain = 0
KHA3 011549Z 03011KT 05/M02 A3037 RMK A01 T00501017  RH  062%=      5-min Rain = 0
KHA3 011550Z 02011KT 05/M02 A3037 RMK A01 T00501017  RH  062%=      5-min Rain = 0
KHA3 011551Z 02011KT 05/M02 A3037 RMK A01 T00501017  RH  062%=      5-min Rain = 0
KHA3 011552Z 03010KT 05/M02 A3037 RMK A01 T00491018  RH  062%=      5-min Rain = 0
KHA3 011553Z 03011KT 05/M02 A3037 RMK A01 T00481018  RH  062%=      5-min Rain = 0
KHA3 011554Z 04011KT 05/M02 A3037 RMK A01 T00481019  RH  062%=      5-min Rain = 0
KHA3 011555Z 03011KT 05/M02 A3038 RMK A01 T00471018  RH  062%=      5-min Rain = 0
KHA3 011556Z 02012KT 05/M02 A3038 RMK A01 T00471018  RH  062%=      5-min Rain = 0
KHA3 011557Z 03011KT 05/M02 A3038 RMK A01 T00481018  RH  062%=      5-min Rain = 0
KHA3 011558Z 04011KT 05/M02 A3038 RMK A01 T00481018  RH  063%=      5-min Rain = 0
KHA3 011559Z 03009KT 05/M02 A3038 RMK A01 T00481018  RH  062%=      5-min Rain = 0
KHA3 011600Z 03011KT 05/M02 A3038 RMK A01 T00481018  RH  062%=      5-min Rain = 0
KHA3 011601Z 04009KT 05/M02 A3038 RMK A01 T00491018  RH  062%=      5-min Rain = 0
KHA3 011602Z 03011KT 05/M02 A3038 RMK A01 T00481017  RH  062%=      5-min Rain = 0
KHA3 011603Z 04009KT 05/M02 A3038 RMK A01 T00481018  RH  062%=      5-min Rain = 0
KHA3 011604Z 04008KT 05/M02 A3038 RMK A01 T00481017  RH  063%=      5-min Rain = 0
KHA3 011605Z 04010KT 05/M02 A3038 RMK A01 T00491016  RH  063%=      5-min Rain = 0
KHA3 011606Z 03010KT 05/M02 A3038 RMK A01 T00481017  RH  063%=      5-min Rain = 0
KHA3 011607Z 03011KT 05/M02 A3038 RMK A01 T00481017  RH  063%=      5-min Rain = 0
KHA3 011608Z 04011KT 05/M02 A3038 RMK A01 T00481018  RH  062%=      5-min Rain = 0
KHA3 011609Z 04012KT 05/M02 A3039 RMK A01 T00481017  RH  063%=      5-min Rain = 0
KHA3 011610Z 05010KT 05/M02 A3039 RMK A01 T00481018  RH  062%=      5-min Rain = 0
KHA3 011611Z 04012KT 05/M02 A3039 RMK A01 T00471018  RH  063%=      5-min Rain = 0
KHA3 011612Z 04012KT 05/M02 A3038 RMK A01 T00481017  RH  063%=      5-min Rain = 0
KHA3 011613Z 04010KT 05/M02 A3038 RMK A01 T00481017  RH  063%=      5-min Rain = 0
KHA3 011614Z 03010KT 05/M02 A3038 RMK A01 T00481017  RH  063%=      5-min Rain = 0
KHA3 011615Z 02009KT 05/M02 A3038 RMK A01 T00491016  RH  063%=      5-min Rain = 0
KHA3 011616Z 02009KT 05/M02 A3038 RMK A01 T00501016  RH  063%=      5-min Rain = 0
KHA3 011617Z 03012KT 05/M02 A3038 RMK A01 T00501016  RH  062%=      5-min Rain = 0
KHA3 011618Z 03012KT 05/M02 A3039 RMK A01 T00501017  RH  062%=      5-min Rain = 0
KHA3 011619Z 03011KT 05/M02 A3039 RMK A01 T00501016  RH  062%=      5-min Rain = 0
KHA3 011620Z 04010KT 05/M02 A3039 RMK A01 T00501017  RH  062%=      5-min Rain = 0
KHA3 011621Z 04010KT 05/M02 A3039 RMK A01 T00501016  RH  062%=      5-min Rain = 0
KHA3 011622Z 04009KT 05/M02 A3039 RMK A01 T00511016  RH  062%=      5-min Rain = 0
KHA3 011623Z 03010KT 05/M02 A3039 RMK A01 T00511016  RH  062%=      5-min Rain = 0
KHA3 011624Z 04012KT 05/M02 A3039 RMK A01 T00511016  RH  062%=      5-min Rain = 0
KHA3 011625Z 04011KT 05/M02 A3039 RMK A01 T00511017  RH  062%=      5-min Rain = 0
KHA3 011626Z 03010KT 05/M02 A3039 RMK A01 T00501016  RH  062%=      5-min Rain = 0
KHA3 011627Z 03011KT 05/M02 A3039 RMK A01 T00511016  RH  062%=      5-min Rain = 0
KHA3 011628Z 03011KT 05/M02 A304 RMK A01 T00511016  RH  062%=      5-min Rain = 0
KHA3 011629Z 03010KT 05/M02 A304 RMK A01 T00501017  RH  062%=      5-min Rain = 0
KHA3 011630Z 03009KT 05/M02 A304 RMK A01 T00501016  RH  062%=      5-min Rain = 0
KHA3 011631Z 04009KT 05/M02 A304 RMK A01 T00501016  RH  062%=      5-min Rain = 0
KHA3 011632Z 02010KT 05/M02 A304 RMK A01 T00511016  RH  062%=      5-min Rain = 0
KHA3 011633Z 03010KT 05/M02 A3039 RMK A01 T00511016  RH  062%=      5-min Rain = 0
KHA3 011634Z 02009KT 05/M02 A3039 RMK A01 T00511016  RH  062%=      5-min Rain = 0
KHA3 011635Z 03011KT 05/M02 A3039 RMK A01 T00511016  RH  062%=      5-min Rain = 0
KHA3 011636Z 03010KT 05/M02 A3039 RMK A01 T00521016  RH  062%=      5-min Rain = 0
KHA3 011637Z 03010KT 05/M02 A3039 RMK A01 T00521015  RH  062%=      5-min Rain = 0
KHA3 011638Z 04009KT 05/M02 A304 RMK A01 T00531015  RH  062%=      5-min Rain = 0
KHA3 011639Z 04009KT 05/M02 A304 RMK A01 T00531015  RH  062%=      5-min Rain = 0
KHA3 011640Z 04009KT 05/M02 A304 RMK A01 T00541015  RH  061%=      5-min Rain = 0
KHA3 011641Z 04011KT 05/M02 A304 RMK A01 T00541015  RH  061%=      5-min Rain = 0
KHA3 011642Z 03011KT 05/M02 A304 RMK A01 T00531017  RH  061%=      5-min Rain = 0
KHA3 011643Z 03011KT 05/M02 A304 RMK A01 T00521017  RH  061%=      5-min Rain = 0
KHA3 011644Z 03010KT 05/M02 A304 RMK A01 T00521017  RH  061%=      5-min Rain = 0
KHA3 011645Z 03010KT 05/M02 A304 RMK A01 T00511016  RH  062%=      5-min Rain = 0
KHA3 011646Z 03011KT 05/M02 A304 RMK A01 T00521015  RH  062%=      5-min Rain = 0
KHA3 011647Z 03011KT 05/M02 A304 RMK A01 T00521016  RH  061%=      5-min Rain = 0
KHA3 011648Z 04011KT 05/M02 A304 RMK A01 T00521017  RH  061%=      5-min Rain = 0
KHA3 011649Z 04011KT 05/M02 A304 RMK A01 T00521016  RH  061%=      5-min Rain = 0
KHA3 011650Z 03008KT 05/M02 A304 RMK A01 T00521016  RH  061%=      5-min Rain = 0
KHA3 011651Z 03009KT 05/M02 A304 RMK A01 T00521016  RH  061%=      5-min Rain = 0
KHA3 011652Z 02010KT 05/M02 A304 RMK A01 T00531015  RH  061%=      5-min Rain = 0
KHA3 011653Z 02008KT 05/M02 A304 RMK A01 T00531016  RH  061%=      5-min Rain = 0
KHA3 011654Z 03008KT 05/M02 A304 RMK A01 T00531016  RH  061%=      5-min Rain = 0
KHA3 011655Z 02008KT 05/M02 A304 RMK A01 T00531016  RH  061%=      5-min Rain = 0
KHA3 011656Z 01008KT 05/M02 A304 RMK A01 T00531015  RH  061%=      5-min Rain = 0
KHA3 011657Z 01009KT 05/M02 A304 RMK A01 T00541015  RH  061%=      5-min Rain = 0
KHA3 011658Z 00009KT 05/M01 A304 RMK A01 T00541014  RH  061%=      5-min Rain = 0
KHA3 011659Z 01010KT 06/M02 A304 RMK A01 T00551015  RH  060%=      5-min Rain = 0
KHA3 011700Z 02008KT 05/M02 A304 RMK A01 T00541016  RH  061%=      5-min Rain = 0
KHA3 011701Z 02012KT 06/M02 A304 RMK A01 T00551015  RH  061%=      5-min Rain = 0
KHA3 011702Z 02013KT 05/M02 A304 RMK A01 T00541016  RH  060%=      5-min Rain = 0
KHA3 011703Z 02011KT 05/M02 A304 RMK A01 T00531018  RH  060%=      5-min Rain = 0
KHA3 011704Z 02011KT 05/M02 A304 RMK A01 T00521018  RH  061%=      5-min Rain = 0
KHA3 011705Z 02011KT 05/M02 A3039 RMK A01 T00521017  RH  061%=      5-min Rain = 0
KHA3 011706Z 02010KT 05/M02 A3039 RMK A01 T00521018  RH  061%=      5-min Rain = 0
KHA3 011707Z 02009KT 05/M02 A304 RMK A01 T00521017  RH  061%=      5-min Rain = 0
KHA3 011708Z 02009KT 05/M02 A304 RMK A01 T00521016  RH  061%=      5-min Rain = 0
KHA3 011709Z 01009KT 05/M02 A304 RMK A01 T00541015  RH  061%=      5-min Rain = 0
KHA3 011710Z 00009KT 05/M02 A304 RMK A01 T00541016  RH  060%=      5-min Rain = 0
KHA3 011711Z 01010KT 06/M02 A304 RMK A01 T00551016  RH  060%=      5-min Rain = 0
KHA3 011712Z 01009KT 06/M02 A304 RMK A01 T00551016  RH  060%=      5-min Rain = 0
KHA3 011713Z 02008KT 05/M02 A304 RMK A01 T00541017  RH  060%=      5-min Rain = 0
KHA3 011714Z 01009KT 05/M02 A304 RMK A01 T00541016  RH  061%=      5-min Rain = 0
KHA3 011715Z 02009KT 06/M01 A304 RMK A01 T00551014  RH  061%=      5-min Rain = 0
KHA3 011716Z 01009KT 06/M02 A304 RMK A01 T00561015  RH  060%=      5-min Rain = 0
KHA3 011717Z 01009KT 06/M02 A304 RMK A01 T00551015  RH  060%=      5-min Rain = 0
KHA3 011718Z 01011KT 06/M02 A304 RMK A01 T00561016  RH  060%=      5-min Rain = 0
KHA3 011719Z 00010KT 06/M02 A304 RMK A01 T00561017  RH  059%=      5-min Rain = 0
KHA3 011720Z 00009KT 06/M02 A304 RMK A01 T00561018  RH  059%=      5-min Rain = 0
KHA3 011721Z 01011KT 06/M02 A304 RMK A01 T00551017  RH  060%=      5-min Rain = 0
KHA3 011722Z 01010KT 06/M02 A304 RMK A01 T00551017  RH  060%=      5-min Rain = 0
KHA3 011723Z 35010KT 06/M02 A304 RMK A01 T00571016  RH  059%=      5-min Rain = 0
KHA3 011724Z 36010KT 06/M02 A304 RMK A01 T00561018  RH  059%=      5-min Rain = 0
KHA3 011725Z 00011KT 06/M02 A304 RMK A01 T00561018  RH  059%=      5-min Rain = 0
KHA3 011726Z 00010KT 06/M02 A304 RMK A01 T00561019  RH  059%=      5-min Rain = 0
KHA3 011727Z 35011KT 06/M02 A304 RMK A01 T00561019  RH  058%=      5-min Rain = 0
KHA3 011728Z 00011KT 06/M02 A304 RMK A01 T00561020  RH  058%=      5-min Rain = 0
KHA3 011729Z 00009KT 06/M02 A304 RMK A01 T00561020  RH  058%=      5-min Rain = 0
KHA3 011730Z 00008KT 06/M02 A304 RMK A01 T00561019  RH  058%=      5-min Rain = 0
KHA3 011731Z 00010KT 06/M02 A304 RMK A01 T00561019  RH  058%=      5-min Rain = 0
KHA3 011732Z 35009KT 06/M02 A304 RMK A01 T00561020  RH  058%=      5-min Rain = 0
KHA3 011733Z 36009KT 06/M02 A304 RMK A01 T00561018  RH  059%=      5-min Rain = 0
KHA3 011734Z 00009KT 06/M02 A304 RMK A01 T00571018  RH  059%=      5-min Rain = 0
KHA3 011735Z 00010KT 06/M02 A304 RMK A01 T00581018  RH  058%=      5-min Rain = 0
KHA3 011736Z 00009KT 06/M02 A304 RMK A01 T00581019  RH  058%=      5-min Rain = 0
KHA3 011737Z 36008KT 06/M02 A304 RMK A01 T00581019  RH  058%=      5-min Rain = 0
KHA3 011738Z 36008KT 06/M02 A304 RMK A01 T00581018  RH  058%=      5-min Rain = 0
KHA3 011739Z 36008KT 06/M02 A304 RMK A01 T00591017  RH  058%=      5-min Rain = 0
KHA3 011740Z 35011KT 06/M02 A304 RMK A01 T00601018  RH  057%=      5-min Rain = 0
KHA3 011741Z 35009KT 06/M02 A304 RMK A01 T00591020  RH  057%=      5-min Rain = 0
KHA3 011742Z 00010KT 06/M02 A304 RMK A01 T00581021  RH  057%=      5-min Rain = 0
KHA3 011743Z 00011KT 06/M02 A304 RMK A01 T00571020  RH  058%=      5-min Rain = 0
KHA3 011744Z 35008KT 06/M02 A304 RMK A01 T00571019  RH  058%=      5-min Rain = 0
KHA3 011745Z 35007KT 06/M02 A304 RMK A01 T00581018  RH  058%=      5-min Rain = 0
KHA3 011746Z 36011KT 06/M02 A304 RMK A01 T00601019  RH  057%=      5-min Rain = 0
KHA3 011747Z 00010KT 06/M02 A304 RMK A01 T00591022  RH  056%=      5-min Rain = 0
KHA3 011748Z 35008KT 06/M02 A304 RMK A01 T00581023  RH  056%=      5-min Rain = 0
KHA3 011749Z 35009KT 06/M02 A304 RMK A01 T00571021  RH  057%=      5-min Rain = 0
KHA3 011750Z 00009KT 06/M02 A304 RMK A01 T00571021  RH  057%=      5-min Rain = 0
KHA3 011751Z 00010KT 06/M02 A304 RMK A01 T00571020  RH  057%=      5-min Rain = 0
KHA3 011752Z 00009KT 06/M02 A304 RMK A01 T00581021  RH  057%=      5-min Rain = 0
KHA3 011753Z 36010KT 06/M02 A304 RMK A01 T00591022  RH  056%=      5-min Rain = 0
KHA3 011754Z 00011KT 06/M02 A304 RMK A01 T00581024  RH  056%=      5-min Rain = 0
KHA3 011755Z 36010KT 06/M02 A304 RMK A01 T00571023  RH  056%=      5-min Rain = 0
KHA3 011756Z 35010KT 06/M02 A304 RMK A01 T00581023  RH  056%=      5-min Rain = 0
KHA3 011757Z 36010KT 06/M02 A304 RMK A01 T00581024  RH  056%=      5-min Rain = 0
KHA3 011758Z 00010KT 06/M03 A304 RMK A01 T00581025  RH  055%=      5-min Rain = 0
KHA3 011759Z 01009KT 06/M03 A304 RMK A01 T00581025  RH  055%=      5-min Rain = 0
KHA3 011800Z 01008KT 06/M03 A304 RMK A01 T00581026  RH  055%=      5-min Rain = 0
KHA3 011801Z 02008KT 06/M03 A304 RMK A01 T00581025  RH  055%=      5-min Rain = 0
KHA3 011802Z 02008KT 06/M03 A304 RMK A01 T00591025  RH  055%=      5-min Rain = 0
KHA3 011803Z 01007KT 06/M02 A304 RMK A01 T00591024  RH  055%=      5-min Rain = 0
KHA3 011804Z 00009KT 06/M02 A304 RMK A01 T00601022  RH  056%=      5-min Rain = 0
KHA3 011805Z 00008KT 06/M02 A304 RMK A01 T00601022  RH  056%=      5-min Rain = 0
KHA3 011806Z 01008KT 06/M02 A304 RMK A01 T00591022  RH  056%=      5-min Rain = 0
KHA3 011807Z 01007KT 06/M02 A304 RMK A01 T00591021  RH  057%=      5-min Rain = 0
KHA3 011808Z 01007KT 06/M02 A304 RMK A01 T00591020  RH  057%=      5-min Rain = 0
KHA3 011809Z 35006KT 06/M02 A304 RMK A01 T00591020  RH  057%=      5-min Rain = 0
KHA3 011810Z 35008KT 06/M02 A304 RMK A01 T00591020  RH  057%=      5-min Rain = 0
KHA3 011811Z 35010KT 06/M02 A304 RMK A01 T00601023  RH  055%=      5-min Rain = 0
KHA3 011812Z 35009KT 06/M02 A304 RMK A01 T00601024  RH  055%=      5-min Rain = 0
KHA3 011813Z 35008KT 06/M02 A304 RMK A01 T00591024  RH  055%=      5-min Rain = 0
KHA3 011814Z 34009KT 06/M02 A3041 RMK A01 T00581022  RH  056%=      5-min Rain = 0
KHA3 011815Z 35008KT 06/M02 A3041 RMK A01 T00581022  RH  056%=      5-min Rain = 0
KHA3 011816Z 34006KT 06/M02 A3041 RMK A01 T00581022  RH  057%=      5-min Rain = 0
KHA3 011817Z 34007KT 06/M02 A3041 RMK A01 T00581022  RH  057%=      5-min Rain = 0
KHA3 011818Z 34009KT 06/M02 A3041 RMK A01 T00581022  RH  057%=      5-min Rain = 0
KHA3 011819Z 35008KT 06/M02 A3041 RMK A01 T00591023  RH  056%=      5-min Rain = 0
KHA3 011820Z 00008KT 06/M02 A3041 RMK A01 T00591022  RH  056%=      5-min Rain = 0
KHA3 011821Z 34009KT 06/M02 A3041 RMK A01 T00601022  RH  056%=      5-min Rain = 0
KHA3 011822Z 35008KT 06/M02 A3041 RMK A01 T00601023  RH  055%=      5-min Rain = 0
KHA3 011823Z 34006KT 06/M02 A3041 RMK A01 T00591023  RH  055%=      5-min Rain = 0
KHA3 011824Z 33008KT 06/M02 A3041 RMK A01 T00581023  RH  056%=      5-min Rain = 0
KHA3 011825Z 34009KT 06/M02 A3041 RMK A01 T00581023  RH  056%=      5-min Rain = 0
KHA3 011826Z 34007KT 06/M03 A3041 RMK A01 T00581025  RH  055%=      5-min Rain = 0
KHA3 011827Z 35007KT 06/M02 A304 RMK A01 T00581024  RH  056%=      5-min Rain = 0
KHA3 011828Z 33007KT 06/M02 A304 RMK A01 T00581024  RH  056%=      5-min Rain = 0
KHA3 011829Z 34010KT 06/M02 A304 RMK A01 T00591024  RH  055%=      5-min Rain = 0
KHA3 011830Z 36009KT 06/M03 A304 RMK A01 T00591026  RH  054%=      5-min Rain = 0
KHA3 011831Z 35008KT 06/M03 A304 RMK A01 T00591028  RH  054%=      5-min Rain = 0
KHA3 011832Z 36009KT 06/M03 A304 RMK A01 T00581028  RH  054%=      5-min Rain = 0
KHA3 011833Z 00009KT 06/M03 A304 RMK A01 T00581026  RH  054%=      5-min Rain = 0
KHA3 011834Z 36009KT 06/M03 A304 RMK A01 T00591026  RH  054%=      5-min Rain = 0
KHA3 011835Z 36008KT 06/M03 A304 RMK A01 T00601026  RH  054%=      5-min Rain = 0
KHA3 011836Z 01009KT 06/M03 A304 RMK A01 T00591026  RH  054%=      5-min Rain = 0
KHA3 011837Z 36008KT 06/M03 A304 RMK A01 T00601025  RH  054%=      5-min Rain = 0
KHA3 011838Z 00008KT 06/M03 A304 RMK A01 T00611026  RH  054%=      5-min Rain = 0
KHA3 011839Z 00008KT 06/M03 A304 RMK A01 T00611026  RH  054%=      5-min Rain = 0
KHA3 011840Z 36008KT 06/M03 A304 RMK A01 T00611027  RH  053%=      5-min Rain = 0
KHA3 011841Z 34009KT 06/M03 A304 RMK A01 T00611026  RH  054%=      5-min Rain = 0
KHA3 011842Z 34008KT 06/M03 A304 RMK A01 T00611025  RH  054%=      5-min Rain = 0
KHA3 011843Z 34008KT 06/M03 A304 RMK A01 T00611025  RH  054%=      5-min Rain = 0
KHA3 011844Z 34009KT 06/M03 A304 RMK A01 T00611025  RH  054%=      5-min Rain = 0
KHA3 011845Z 35007KT 06/M03 A304 RMK A01 T00601026  RH  054%=      5-min Rain = 0
KHA3 011846Z 35010KT 06/M03 A304 RMK A01 T00601026  RH  054%=      5-min Rain = 0
KHA3 011847Z 35008KT 06/M03 A304 RMK A01 T00601027  RH  053%=      5-min Rain = 0
KHA3 011848Z 34007KT 06/M03 A304 RMK A01 T00601028  RH  053%=      5-min Rain = 0
KHA3 011849Z 35007KT 06/M03 A304 RMK A01 T00601027  RH  054%=      5-min Rain = 0
KHA3 011850Z 35009KT 06/M03 A304 RMK A01 T00611026  RH  054%=      5-min Rain = 0
KHA3 011851Z 35009KT 06/M03 A304 RMK A01 T00611027  RH  053%=      5-min Rain = 0
KHA3 011852Z 34009KT 06/M03 A304 RMK A01 T00611028  RH  053%=      5-min Rain = 0
KHA3 011853Z 34008KT 06/M03 A304 RMK A01 T00611028  RH  053%=      5-min Rain = 0
KHA3 011854Z 34008KT 06/M03 A304 RMK A01 T00611026  RH  053%=      5-min Rain = 0
KHA3 011855Z 34008KT 06/M03 A304 RMK A01 T00621026  RH  053%=      5-min Rain = 0
KHA3 011856Z 35009KT 06/M03 A304 RMK A01 T00621026  RH  053%=      5-min Rain = 0
KHA3 011857Z 36009KT 06/M03 A304 RMK A01 T00631028  RH  052%=      5-min Rain = 0
KHA3 011858Z 35009KT 06/M03 A304 RMK A01 T00631029  RH  052%=      5-min Rain = 0
KHA3 011859Z 34009KT 06/M03 A304 RMK A01 T00631028  RH  052%=      5-min Rain = 0
KHA3 011900Z 34009KT 06/M03 A304 RMK A01 T00621028  RH  052%=      5-min Rain = 0
KHA3 011901Z 35008KT 06/M03 A304 RMK A01 T00621029  RH  052%=      5-min Rain = 0
KHA3 011902Z 35008KT 06/M03 A304 RMK A01 T00621028  RH  053%=      5-min Rain = 0
KHA3 011903Z 35009KT 06/M03 A304 RMK A01 T00631027  RH  053%=      5-min Rain = 0
KHA3 011904Z 35009KT 06/M03 A304 RMK A01 T00631029  RH  052%=      5-min Rain = 0
KHA3 011905Z 35009KT 06/M03 A304 RMK A01 T00631030  RH  051%=      5-min Rain = 0
KHA3 011906Z 34009KT 06/M03 A304 RMK A01 T00621030  RH  051%=      5-min Rain = 0
KHA3 011907Z 35010KT 06/M03 A304 RMK A01 T00631031  RH  051%=      5-min Rain = 0
KHA3 011908Z 36009KT 06/M03 A304 RMK A01 T00621033  RH  051%=      5-min Rain = 0
KHA3 011909Z 36010KT 06/M03 A304 RMK A01 T00621032  RH  051%=      5-min Rain = 0
KHA3 011910Z 35010KT 06/M03 A304 RMK A01 T00621031  RH  051%=      5-min Rain = 0
KHA3 011911Z 35008KT 06/M03 A304 RMK A01 T00621031  RH  051%=      5-min Rain = 0
KHA3 011912Z 34007KT 06/M03 A304 RMK A01 T00631031  RH  051%=      5-min Rain = 0
KHA3 011913Z 34008KT 06/M03 A304 RMK A01 T00631031  RH  051%=      5-min Rain = 0
KHA3 011914Z 34008KT 06/M03 A304 RMK A01 T00631032  RH  050%=      5-min Rain = 0
KHA3 011915Z 33009KT 06/M03 A3039 RMK A01 T00631031  RH  051%=      5-min Rain = 0
KHA3 011916Z 33009KT 06/M03 A3039 RMK A01 T00641029  RH  052%=      5-min Rain = 0
KHA3 011917Z 34009KT 06/M03 A3039 RMK A01 T00641028  RH  052%=      5-min Rain = 0
KHA3 011918Z 34008KT 06/M03 A3039 RMK A01 T00641029  RH  052%=      5-min Rain = 0
KHA3 011919Z 35010KT 06/M03 A3039 RMK A01 T00641028  RH  052%=      5-min Rain = 0
KHA3 011920Z 34011KT 06/M03 A3039 RMK A01 T00631028  RH  052%=      5-min Rain = 0
KHA3 011921Z 34008KT 06/M03 A3039 RMK A01 T00641028  RH  052%=      5-min Rain = 0
KHA3 011922Z 34009KT 06/M03 A3039 RMK A01 T00641027  RH  052%=      5-min Rain = 0
KHA3 011923Z 35010KT 06/M03 A3039 RMK A01 T00641029  RH  051%=      5-min Rain = 0
KHA3 011924Z 34007KT 06/M03 A3039 RMK A01 T00631030  RH  051%=      5-min Rain = 0
KHA3 011925Z 35007KT 06/M03 A3039 RMK A01 T00631029  RH  052%=      5-min Rain = 0
KHA3 011926Z 34007KT 06/M03 A3039 RMK A01 T00631028  RH  052%=      5-min Rain = 0
KHA3 011927Z 35006KT 06/M03 A3039 RMK A01 T00641028  RH  052%=      5-min Rain = 0
KHA3 011928Z 34006KT 07/M03 A3039 RMK A01 T00651026  RH  052%=      5-min Rain = 0
KHA3 011929Z 34008KT 07/M03 A3039 RMK A01 T00651027  RH  052%=      5-min Rain = 0
KHA3 011930Z 35007KT 07/M03 A3039 RMK A01 T00651028  RH  051%=      5-min Rain = 0
KHA3 011931Z 36008KT 07/M03 A3039 RMK A01 T00651028  RH  051%=      5-min Rain = 0
KHA3 011932Z 00008KT 07/M03 A3039 RMK A01 T00651030  RH  050%=      5-min Rain = 0
KHA3 011933Z 35008KT 07/M03 A3039 RMK A01 T00661031  RH  050%=      5-min Rain = 0
KHA3 011934Z 35008KT 07/M03 A3039 RMK A01 T00661033  RH  049%=      5-min Rain = 0
KHA3 011935Z 35007KT 07/M03 A3039 RMK A01 T00661033  RH  049%=      5-min Rain = 0
KHA3 011936Z 35007KT 07/M03 A3039 RMK A01 T00661032  RH  050%=      5-min Rain = 0
KHA3 011937Z 34006KT 07/M03 A3039 RMK A01 T00661031  RH  050%=      5-min Rain = 0
KHA3 011938Z 34005KT 07/M03 A3039 RMK A01 T00651030  RH  051%=      5-min Rain = 0
KHA3 011939Z 35005KT 07/M03 A3039 RMK A01 T00661029  RH  051%=      5-min Rain = 0
KHA3 011940Z 34005KT 07/M03 A3039 RMK A01 T00661029  RH  051%=      5-min Rain = 0
KHA3 011941Z 35006KT 07/M03 A3039 RMK A01 T00661029  RH  051%=      5-min Rain = 0
KHA3 011942Z 34007KT 07/M03 A3039 RMK A01 T00671029  RH  050%=      5-min Rain = 0
KHA3 011943Z 34006KT 07/M03 A3038 RMK A01 T00671029  RH  050%=      5-min Rain = 0
KHA3 011944Z 34007KT 07/M03 A3038 RMK A01 T00671030  RH  050%=      5-min Rain = 0
KHA3 011945Z 34005KT 07/M03 A3038 RMK A01 T00671030  RH  050%=      5-min Rain = 0
KHA3 011946Z 34006KT 07/M03 A3038 RMK A01 T00671028  RH  051%=      5-min Rain = 0
KHA3 011947Z 34005KT 07/M03 A3038 RMK A01 T00681029  RH  050%=      5-min Rain = 0
KHA3 011948Z 35007KT 07/M03 A3038 RMK A01 T00681029  RH  050%=      5-min Rain = 0
KHA3 011949Z 36008KT 07/M03 A3038 RMK A01 T00681033  RH  049%=      5-min Rain = 0
KHA3 011950Z 01007KT 07/M03 A3038 RMK A01 T00681034  RH  048%=      5-min Rain = 0
KHA3 011951Z 00007KT 07/M03 A3038 RMK A01 T00681033  RH  048%=      5-min Rain = 0
KHA3 011952Z 00006KT 07/M03 A3038 RMK A01 T00681032  RH  049%=      5-min Rain = 0
KHA3 011953Z 00006KT 07/M03 A3038 RMK A01 T00691033  RH  048%=      5-min Rain = 0
KHA3 011954Z 36005KT 07/M03 A3038 RMK A01 T00691031  RH  049%=      5-min Rain = 0
KHA3 011955Z 00007KT 07/M03 A3038 RMK A01 T00701029  RH  049%=      5-min Rain = 0
KHA3 011956Z 01007KT 07/M03 A3038 RMK A01 T00711031  RH  048%=      5-min Rain = 0
KHA3 011957Z 00007KT 07/M03 A3038 RMK A01 T00721030  RH  048%=      5-min Rain = 0
KHA3 011958Z 34006KT 07/M03 A3038 RMK A01 T00721029  RH  049%=      5-min Rain = 0
KHA3 011959Z 35007KT 07/M03 A3038 RMK A01 T00721029  RH  048%=      5-min Rain = 0
KHA3 012000Z 34007KT 07/M03 A3038 RMK A01 T00721030  RH  048%=      5-min Rain = 0
KHA3 012001Z 34007KT 07/M03 A3038 RMK A01 T00721030  RH  048%=      5-min Rain = 0
KHA3 012002Z 34007KT 07/M03 A3038 RMK A01 T00711034  RH  047%=      5-min Rain = 0
KHA3 012003Z 35006KT 07/M03 A3038 RMK A01 T00701034  RH  047%=      5-min Rain = 0
KHA3 012004Z 35005KT 07/M03 A3038 RMK A01 T00701033  RH  048%=      5-min Rain = 0
KHA3 012005Z 36005KT 07/M03 A3038 RMK A01 T00711032  RH  048%=      5-min Rain = 0
KHA3 012006Z 01006KT 07/M03 A3038 RMK A01 T00721031  RH  048%=      5-min Rain = 0
KHA3 012007Z 01005KT 07/M03 A3038 RMK A01 T00721034  RH  047%=      5-min Rain = 0
KHA3 012008Z 01006KT 07/M03 A3038 RMK A01 T00721033  RH  047%=      5-min Rain = 0
KHA3 012009Z 01006KT 07/M03 A3038 RMK A01 T00721034  RH  047%=      5-min Rain = 0
KHA3 012010Z 00005KT 07/M03 A3038 RMK A01 T00721034  RH  047%=      5-min Rain = 0
KHA3 012011Z 35004KT 07/M03 A3038 RMK A01 T00731031  RH  048%=      5-min Rain = 0
KHA3 012012Z 34005KT 07/M03 A3038 RMK A01 T00741032  RH  047%=      5-min Rain = 0
KHA3 012013Z 34005KT 07/M03 A3038 RMK A01 T00741032  RH  047%=      5-min Rain = 0
KHA3 012014Z 33004KT 07/M03 A3038 RMK A01 T00741033  RH  047%=      5-min Rain = 0
KHA3 012015Z 34004KT 07/M03 A3038 RMK A01 T00741034  RH  046%=      5-min Rain = 0
KHA3 012016Z 35003KT 07/M03 A3038 RMK A01 T00731033  RH  047%=      5-min Rain = 0
KHA3 012017Z 00004KT 07/M03 A3038 RMK A01 T00741034  RH  046%=      5-min Rain = 0
KHA3 012018Z 35004KT 07/M03 A3038 RMK A01 T00741032  RH  047%=      5-min Rain = 0
KHA3 012019Z 36004KT 08/M03 A3038 RMK A01 T00761031  RH  047%=      5-min Rain = 0
KHA3 012020Z 00006KT 08/M03 A3037 RMK A01 T00761032  RH  046%=      5-min Rain = 0
KHA3 012021Z 35006KT 08/M03 A3037 RMK A01 T00761033  RH  046%=      5-min Rain = 0
KHA3 012022Z 35006KT 08/M04 A3037 RMK A01 T00771037  RH  044%=      5-min Rain = 0
KHA3 012023Z 35006KT 08/M04 A3037 RMK A01 T00771037  RH  044%=      5-min Rain = 0
KHA3 012024Z 01006KT 08/M04 A3037 RMK A01 T00771036  RH  045%=      5-min Rain = 0
KHA3 012025Z 01005KT 08/M04 A3037 RMK A01 T00771036  RH  045%=      5-min Rain = 0
KHA3 012026Z 00004KT 08/M04 A3037 RMK A01 T00771036  RH  045%=      5-min Rain = 0
KHA3 012027Z 00005KT 08/M04 A3037 RMK A01 T00771036  RH  045%=      5-min Rain = 0
KHA3 012028Z 00007KT 08/M04 A3037 RMK A01 T00771037  RH  044%=      5-min Rain = 0
KHA3 012029Z 35007KT 08/M04 A3037 RMK A01 T00771038  RH  044%=      5-min Rain = 0
KHA3 012030Z 36005KT 08/M04 A3037 RMK A01 T00771039  RH  044%=      5-min Rain = 0
KHA3 012031Z 00005KT 08/M04 A3037 RMK A01 T00781038  RH  044%=      5-min Rain = 0
KHA3 012032Z 35006KT 08/M04 A3037 RMK A01 T00781038  RH  044%=      5-min Rain = 0
KHA3 012033Z 35007KT 08/M04 A3037 RMK A01 T00791039  RH  043%=      5-min Rain = 0
KHA3 012034Z 35006KT 08/M04 A3037 RMK A01 T00791040  RH  043%=      5-min Rain = 0
KHA3 012035Z 35005KT 08/M04 A3037 RMK A01 T00791038  RH  043%=      5-min Rain = 0
KHA3 012036Z 35003KT 08/M04 A3037 RMK A01 T00801037  RH  043%=      5-min Rain = 0
KHA3 012037Z 00004KT 08/M04 A3037 RMK A01 T00801038  RH  043%=      5-min Rain = 0
KHA3 012038Z 36005KT 08/M04 A3037 RMK A01 T00811038  RH  043%=      5-min Rain = 0
KHA3 012039Z 00005KT 08/M04 A3037 RMK A01 T00811040  RH  042%=      5-min Rain = 0
KHA3 012040Z 00004KT 08/M04 A3037 RMK A01 T00801042  RH  042%=      5-min Rain = 0
KHA3 012041Z 36004KT 08/M04 A3037 RMK A01 T00791044  RH  041%=      5-min Rain = 0
KHA3 012042Z 36004KT 08/M04 A3038 RMK A01 T00791041  RH  042%=      5-min Rain = 0
KHA3 012043Z 01004KT 08/M04 A3038 RMK A01 T00801038  RH  043%=      5-min Rain = 0
KHA3 012044Z 01003KT 08/M04 A3038 RMK A01 T00811042  RH  041%=      5-min Rain = 0
KHA3 012045Z 36002KT 08/M04 A3038 RMK A01 T00811041  RH  042%=      5-min Rain = 0
KHA3 012046Z 35004KT 08/M04 A3038 RMK A01 T00811042  RH  041%=      5-min Rain = 0
KHA3 012047Z 35003KT 08/M05 A3038 RMK A01 T00811046  RH  040%=      5-min Rain = 0
KHA3 012048Z 01002KT 08/M05 A3037 RMK A01 T00811046  RH  040%=      5-min Rain = 0
KHA3 012049Z 02001KT 08/M05 A3037 RMK A01 T00811047  RH  040%=      5-min Rain = 0
KHA3 012050Z 03001KT 08/M05 A3037 RMK A01 T00801047  RH  040%=      5-min Rain = 0
KHA3 012051Z 04001KT 08/M05 A3037 RMK A01 T00811046  RH  040%=      5-min Rain = 0
KHA3 012052Z 35000KT 08/M04 A3037 RMK A01 T00821043  RH  041%=      5-min Rain = 0
KHA3 012053Z 02001KT 08/M04 A3037 RMK A01 T00821042  RH  041%=      5-min Rain = 0
KHA3 012054Z 33002KT 08/M04 A3037 RMK A01 T00841038  RH  042%=      5-min Rain = 0
KHA3 012055Z 34002KT 09/M04 A3037 RMK A01 T00851042  RH  041%=      5-min Rain = 0
KHA3 012056Z 34001KT 09/M04 A3037 RMK A01 T00851042  RH  040%=      5-min Rain = 0
KHA3 012057Z 33000KT 08/M04 A3037 RMK A01 T00841042  RH  041%=      5-min Rain = 0
KHA3 012058Z 00000KT 08/M04 A3037 RMK A01 T00841044  RH  040%=      5-min Rain = 0
KHA3 012059Z 03000KT 08/M04 A3037 RMK A01 T00841044  RH  040%=      5-min Rain = 0
KHA3 012100Z 00001KT 09/M04 A3037 RMK A01 T00851041  RH  041%=      5-min Rain = 0
KHA3 012101Z 35001KT 09/M04 A3037 RMK A01 T00851042  RH  040%=      5-min Rain = 0
KHA3 012102Z 34002KT 09/M04 A3037 RMK A01 T00851044  RH  040%=      5-min Rain = 0
KHA3 012103Z 33001KT 09/M04 A3037 RMK A01 T00851043  RH  040%=      5-min Rain = 0
KHA3 012104Z 34002KT 08/M04 A3037 RMK A01 T00841042  RH  041%=      5-min Rain = 0
KHA3 012105Z 33001KT 09/M05 A3037 RMK A01 T00851045  RH  039%=      5-min Rain = 0
KHA3 012106Z 34000KT 09/M04 A3037 RMK A01 T00851043  RH  040%=      5-min Rain = 0
KHA3 012107Z 05002KT 09/M04 A3037 RMK A01 T00851042  RH  040%=      5-min Rain = 0
KHA3 012108Z 03004KT 09/M04 A3037 RMK A01 T00861041  RH  040%=      5-min Rain = 0
KHA3 012109Z 02003KT 09/M05 A3037 RMK A01 T00861049  RH  038%=      5-min Rain = 0
KHA3 012110Z 04002KT 09/M05 A3037 RMK A01 T00861050  RH  038%=      5-min Rain = 0
KHA3 012111Z 05002KT 09/M05 A3037 RMK A01 T00861050  RH  038%=      5-min Rain = 0
KHA3 012112Z 36002KT 09/M05 A3037 RMK A01 T00871045  RH  039%=      5-min Rain = 0
KHA3 012113Z 01001KT 09/M05 A3037 RMK A01 T00881047  RH  038%=      5-min Rain = 0
KHA3 012114Z 34002KT 09/M05 A3037 RMK A01 T00881046  RH  038%=      5-min Rain = 0
KHA3 012115Z 36003KT 09/M05 A3037 RMK A01 T00881048  RH  038%=      5-min Rain = 0
KHA3 012116Z 01003KT 09/M06 A3037 RMK A01 T00881055  RH  036%=      5-min Rain = 0
KHA3 012117Z 02003KT 09/M06 A3037 RMK A01 T00881056  RH  036%=      5-min Rain = 0
KHA3 012118Z 03003KT 09/M06 A3037 RMK A01 T00881055  RH  036%=      5-min Rain = 0
KHA3 012119Z 35003KT 09/M05 A3037 RMK A01 T00881054  RH  036%=      5-min Rain = 0
KHA3 012120Z 35005KT 09/M05 A3037 RMK A01 T00891052  RH  037%=      5-min Rain = 0
KHA3 012121Z 01004KT 09/M05 A3037 RMK A01 T00891053  RH  036%=      5-min Rain = 0
KHA3 012122Z 00004KT 09/M05 A3037 RMK A01 T00901051  RH  036%=      5-min Rain = 0
KHA3 012123Z 36004KT 09/M05 A3037 RMK A01 T00901052  RH  036%=      5-min Rain = 0
KHA3 012124Z 03003KT 09/M05 A3037 RMK A01 T00901053  RH  036%=      5-min Rain = 0
KHA3 012125Z 04004KT 09/M05 A3037 RMK A01 T00901050  RH  037%=      5-min Rain = 0
KHA3 012126Z 05004KT 09/M06 A3037 RMK A01 T00901055  RH  035%=      5-min Rain = 0
KHA3 012127Z 04003KT 09/M06 A3037 RMK A01 T00891055  RH  036%=      5-min Rain = 0
KHA3 012128Z 03004KT 09/M05 A3037 RMK A01 T00881052  RH  037%=      5-min Rain = 0
KHA3 012129Z 04003KT 09/M06 A3037 RMK A01 T00881055  RH  036%=      5-min Rain = 0
KHA3 012130Z 04003KT 09/M06 A3037 RMK A01 T00881056  RH  036%=      5-min Rain = 0
KHA3 012131Z 04003KT 09/M05 A3037 RMK A01 T00881053  RH  036%=      5-min Rain = 0
KHA3 012132Z 02003KT 09/M05 A3037 RMK A01 T00901053  RH  036%=      5-min Rain = 0
KHA3 012133Z 01002KT 09/M06 A3037 RMK A01 T00891056  RH  035%=      5-min Rain = 0
KHA3 012134Z 36002KT 09/M06 A3037 RMK A01 T00891055  RH  036%=      5-min Rain = 0
KHA3 012135Z 34002KT 09/M06 A3037 RMK A01 T00891055  RH  036%=      5-min Rain = 0
KHA3 012136Z 35001KT 09/M06 A3037 RMK A01 T00891058  RH  035%=      5-min Rain = 0
KHA3 012137Z 34001KT 09/M06 A3037 RMK A01 T00891056  RH  035%=      5-min Rain = 0
KHA3 012138Z 34002KT 09/M06 A3038 RMK A01 T00891056  RH  036%=      5-min Rain = 0
KHA3 012139Z 35002KT 09/M06 A3038 RMK A01 T00891056  RH  035%=      5-min Rain = 0
KHA3 012140Z 36002KT 09/M06 A3038 RMK A01 T00891059  RH  035%=      5-min Rain = 0
KHA3 012141Z 00002KT 09/M06 A3038 RMK A01 T00891057  RH  035%=      5-min Rain = 0
KHA3 012142Z 35001KT 09/M06 A3038 RMK A01 T00891057  RH  035%=      5-min Rain = 0
KHA3 012143Z 36002KT 09/M06 A3038 RMK A01 T00891057  RH  035%=      5-min Rain = 0
KHA3 012144Z 35002KT 09/M06 A3038 RMK A01 T00891059  RH  035%=      5-min Rain = 0
KHA3 012145Z 02001KT 09/M06 A3037 RMK A01 T00891059  RH  035%=      5-min Rain = 0
KHA3 012146Z 00001KT 09/M06 A3038 RMK A01 T00891057  RH  035%=      5-min Rain = 0
KHA3 012147Z 01001KT 09/M06 A3038 RMK A01 T00891057  RH  035%=      5-min Rain = 0
KHA3 012148Z 06001KT 09/M06 A3038 RMK A01 T00891057  RH  035%=      5-min Rain = 0
KHA3 012149Z 08002KT 09/M06 A3038 RMK A01 T00891056  RH  035%=      5-min Rain = 0
KHA3 012150Z 07003KT 09/M06 A3038 RMK A01 T00891062  RH  034%=      5-min Rain = 0
KHA3 012151Z 06003KT 09/M06 A3038 RMK A01 T00891063  RH  033%=      5-min Rain = 0
KHA3 012152Z 08002KT 09/M07 A3037 RMK A01 T00901066  RH  033%=      5-min Rain = 0
KHA3 012153Z 08001KT 09/M07 A3037 RMK A01 T00891068  RH  032%=      5-min Rain = 0
KHA3 012154Z 09002KT 09/M07 A3037 RMK A01 T00891072  RH  031%=      5-min Rain = 0
KHA3 012155Z 08002KT 09/M07 A3037 RMK A01 T00901071  RH  031%=      5-min Rain = 0
KHA3 012156Z 05001KT 09/M07 A3037 RMK A01 T00901069  RH  032%=      5-min Rain = 0
KHA3 012157Z 04002KT 09/M07 A3037 RMK A01 T00901067  RH  032%=      5-min Rain = 0
KHA3 012158Z 05001KT 09/M07 A3037 RMK A01 T00901065  RH  033%=      5-min Rain = 0
KHA3 012159Z 06002KT 09/M06 A3037 RMK A01 T00901063  RH  033%=      5-min Rain = 0
KHA3 012200Z 07002KT 09/M07 A3037 RMK A01 T00911069  RH  032%=      5-min Rain = 0
KHA3 012201Z 06002KT 09/M07 A3037 RMK A01 T00911073  RH  031%=      5-min Rain = 0
KHA3 012202Z 10002KT 09/M08 A3037 RMK A01 T00911076  RH  030%=      5-min Rain = 0
KHA3 012203Z 07002KT 09/M08 A3037 RMK A01 T00911075  RH  030%=      5-min Rain = 0
KHA3 012204Z 07002KT 09/M07 A3037 RMK A01 T00911074  RH  030%=      5-min Rain = 0
KHA3 012205Z 10002KT 09/M07 A3037 RMK A01 T00921072  RH  031%=      5-min Rain = 0
KHA3 012206Z 09003KT 09/M06 A3037 RMK A01 T00921063  RH  033%=      5-min Rain = 0
KHA3 012207Z 08003KT 09/M06 A3037 RMK A01 T00911063  RH  033%=      5-min Rain = 0
KHA3 012208Z 10003KT 09/M07 A3037 RMK A01 T00911066  RH  032%=      5-min Rain = 0
KHA3 012209Z 09002KT 09/M07 A3037 RMK A01 T00911068  RH  032%=      5-min Rain = 0
KHA3 012210Z 10002KT 09/M07 A3037 RMK A01 T00911070  RH  031%=      5-min Rain = 0
KHA3 012211Z 10004KT 09/M06 A3037 RMK A01 T00901063  RH  033%=      5-min Rain = 0
KHA3 012212Z 09004KT 09/M06 A3037 RMK A01 T00901061  RH  034%=      5-min Rain = 0
KHA3 012213Z 11004KT 09/M06 A3037 RMK A01 T00901061  RH  034%=      5-min Rain = 0
KHA3 012214Z 10003KT 09/M06 A3037 RMK A01 T00901063  RH  033%=      5-min Rain = 0
KHA3 012215Z 10002KT 09/M06 A3037 RMK A01 T00901063  RH  033%=      5-min Rain = 0
KHA3 012216Z 09003KT 09/M07 A3037 RMK A01 T00901065  RH  033%=      5-min Rain = 0
KHA3 012217Z 10003KT 09/M06 A3037 RMK A01 T00901063  RH  033%=      5-min Rain = 0
KHA3 012218Z 10003KT 09/M06 A3037 RMK A01 T00901062  RH  034%=      5-min Rain = 0
KHA3 012219Z 10002KT 09/M06 A3037 RMK A01 T00891063  RH  034%=      5-min Rain = 0
KHA3 012220Z 11003KT 09/M06 A3037 RMK A01 T00901062  RH  034%=      5-min Rain = 0
KHA3 012221Z 11002KT 09/M07 A3037 RMK A01 T00891070  RH  032%=      5-min Rain = 0
KHA3 012222Z 12002KT 09/M07 A3037 RMK A01 T00891066  RH  033%=      5-min Rain = 0
KHA3 012223Z 10002KT 09/M06 A3037 RMK A01 T00891059  RH  035%=      5-min Rain = 0
KHA3 012224Z 10002KT 09/M06 A3037 RMK A01 T00891058  RH  035%=      5-min Rain = 0
KHA3 012225Z 11003KT 09/M06 A3037 RMK A01 T00891058  RH  035%=      5-min Rain = 0
KHA3 012226Z 13003KT 09/M06 A3037 RMK A01 T00901064  RH  033%=      5-min Rain = 0
KHA3 012227Z 13003KT 09/M07 A3036 RMK A01 T00901070  RH  032%=      5-min Rain = 0
KHA3 012228Z 12003KT 09/M07 A3036 RMK A01 T00891068  RH  032%=      5-min Rain = 0
KHA3 012229Z 10003KT 09/M07 A3036 RMK A01 T00891069  RH  032%=      5-min Rain = 0
KHA3 012230Z 11003KT 09/M07 A3036 RMK A01 T00891069  RH  032%=      5-min Rain = 0
KHA3 012231Z 12003KT 09/M06 A3036 RMK A01 T00891064  RH  033%=      5-min Rain = 0
KHA3 012232Z 10003KT 09/M07 A3036 RMK A01 T00891065  RH  033%=      5-min Rain = 0
KHA3 012233Z 12003KT 09/M06 A3036 RMK A01 T00901063  RH  033%=      5-min Rain = 0
KHA3 012234Z 10003KT 09/M06 A3036 RMK A01 T00891064  RH  033%=      5-min Rain = 0
KHA3 012235Z 09003KT 09/M07 A3036 RMK A01 T00891070  RH  032%=      5-min Rain = 0
KHA3 012236Z 08003KT 09/M07 A3036 RMK A01 T00891067  RH  032%=      5-min Rain = 0
KHA3 012237Z 07003KT 09/M07 A3036 RMK A01 T00901069  RH  032%=      5-min Rain = 0
KHA3 012238Z 09002KT 09/M08 A3036 RMK A01 T00901077  RH  030%=      5-min Rain = 0
KHA3 012239Z 10002KT 09/M08 A3036 RMK A01 T00891076  RH  030%=      5-min Rain = 0
KHA3 012240Z 10003KT 09/M07 A3036 RMK A01 T00891071  RH  031%=      5-min Rain = 0
KHA3 012241Z 08003KT 09/M07 A3036 RMK A01 T00891068  RH  032%=      5-min Rain = 0
KHA3 012242Z 08002KT 09/M07 A3036 RMK A01 T00891069  RH  032%=      5-min Rain = 0
KHA3 012243Z 11003KT 09/M07 A3036 RMK A01 T00891071  RH  032%=      5-min Rain = 0
KHA3 012244Z 10002KT 09/M07 A3036 RMK A01 T00891074  RH  031%=      5-min Rain = 0
KHA3 012245Z 10002KT 09/M07 A3036 RMK A01 T00891065  RH  033%=      5-min Rain = 0
KHA3 012246Z 12002KT 09/M06 A3036 RMK A01 T00891062  RH  034%=      5-min Rain = 0
KHA3 012247Z 11003KT 09/M06 A3036 RMK A01 T00891064  RH  033%=      5-min Rain = 0
KHA3 012248Z 11003KT 09/M07 A3036 RMK A01 T00891073  RH  031%=      5-min Rain = 0
KHA3 012249Z 11003KT 09/M07 A3036 RMK A01 T00891071  RH  032%=      5-min Rain = 0
KHA3 012250Z 10002KT 09/M07 A3036 RMK A01 T00891073  RH  031%=      5-min Rain = 0
KHA3 012251Z 10002KT 09/M07 A3036 RMK A01 T00891070  RH  032%=      5-min Rain = 0
KHA3 012252Z 10003KT 09/M07 A3036 RMK A01 T00891072  RH  031%=      5-min Rain = 0
KHA3 012253Z 10002KT 09/M07 A3036 RMK A01 T00891070  RH  032%=      5-min Rain = 0
KHA3 012254Z 12002KT 09/M07 A3036 RMK A01 T00891069  RH  032%=      5-min Rain = 0
KHA3 012255Z 11001KT 09/M07 A3036 RMK A01 T00891074  RH  031%=      5-min Rain = 0
KHA3 012256Z 11003KT 09/M07 A3036 RMK A01 T00891070  RH  032%=      5-min Rain = 0
KHA3 012257Z 12003KT 09/M07 A3036 RMK A01 T00881066  RH  033%=      5-min Rain = 0
KHA3 012258Z 12003KT 09/M07 A3036 RMK A01 T00891070  RH  032%=      5-min Rain = 0
KHA3 012259Z 13002KT 09/M07 A3036 RMK A01 T00881072  RH  031%=      5-min Rain = 0
KHA3 012300Z 13002KT 09/M07 A3036 RMK A01 T00881068  RH  032%=      5-min Rain = 0
KHA3 012301Z 14002KT 09/M07 A3036 RMK A01 T00891068  RH  032%=      5-min Rain = 0
KHA3 012302Z 14001KT 09/M07 A3036 RMK A01 T00881070  RH  032%=      5-min Rain = 0
KHA3 012303Z 14002KT 09/M07 A3036 RMK A01 T00881068  RH  033%=      5-min Rain = 0
KHA3 012304Z 15002KT 09/M06 A3036 RMK A01 T00881063  RH  034%=      5-min Rain = 0
KHA3 012305Z 14001KT 09/M06 A3036 RMK A01 T00891063  RH  034%=      5-min Rain = 0
KHA3 012306Z 14001KT 09/M07 A3036 RMK A01 T00891069  RH  032%=      5-min Rain = 0
KHA3 012307Z 15002KT 09/M06 A3036 RMK A01 T00891064  RH  033%=      5-min Rain = 0
KHA3 012308Z 15002KT 09/M06 A3036 RMK A01 T00891063  RH  034%=      5-min Rain = 0
KHA3 012309Z 18002KT 09/M06 A3036 RMK A01 T00891062  RH  034%=      5-min Rain = 0
KHA3 012310Z 19002KT 09/M06 A3036 RMK A01 T00891063  RH  034%=      5-min Rain = 0
KHA3 012311Z 20002KT 09/M07 A3036 RMK A01 T00891066  RH  033%=      5-min Rain = 0
KHA3 012312Z 20002KT 09/M07 A3036 RMK A01 T00891068  RH  032%=      5-min Rain = 0
KHA3 012313Z 19003KT 09/M07 A3036 RMK A01 T00891066  RH  033%=      5-min Rain = 0
KHA3 012314Z 19002KT 09/M07 A3036 RMK A01 T00881067  RH  033%=      5-min Rain = 0
KHA3 012315Z 19002KT 09/M06 A3036 RMK A01 T00881059  RH  035%=      5-min Rain = 0
KHA3 012316Z 19002KT 09/M06 A3036 RMK A01 T00881062  RH  034%=      5-min Rain = 0
KHA3 012317Z 19002KT 09/M07 A3036 RMK A01 T00871069  RH  032%=      5-min Rain = 0
KHA3 012318Z 19001KT 09/M07 A3036 RMK A01 T00871069  RH  032%=      5-min Rain = 0
KHA3 012319Z 20001KT 09/M07 A3036 RMK A01 T00871066  RH  033%=      5-min Rain = 0
KHA3 012320Z 20001KT 09/M06 A3036 RMK A01 T00871064  RH  034%=      5-min Rain = 0
KHA3 012321Z 20001KT 09/M07 A3036 RMK A01 T00881068  RH  033%=      5-min Rain = 0
KHA3 012322Z 21001KT 09/M07 A3036 RMK A01 T00871070  RH  032%=      5-min Rain = 0
KHA3 012323Z 22001KT 09/M07 A3036 RMK A01 T00871070  RH  032%=      5-min Rain = 0
KHA3 012324Z 24002KT 09/M06 A3036 RMK A01 T00871064  RH  034%=      5-min Rain = 0
KHA3 012325Z 24002KT 09/M06 A3036 RMK A01 T00871064  RH  034%=      5-min Rain = 0
KHA3 012326Z 25002KT 09/M07 A3036 RMK A01 T00871068  RH  033%=      5-min Rain = 0
KHA3 012327Z 24002KT 09/M06 A3036 RMK A01 T00871062  RH  034%=      5-min Rain = 0
KHA3 012328Z 24003KT 09/M06 A3036 RMK A01 T00871061  RH  034%=      5-min Rain = 0
KHA3 012329Z 24002KT 09/M06 A3036 RMK A01 T00871064  RH  034%=      5-min Rain = 0
KHA3 012330Z 24002KT 09/M07 A3036 RMK A01 T00871066  RH  033%=      5-min Rain = 0
KHA3 012331Z 24002KT 09/M07 A3036 RMK A01 T00871069  RH  033%=      5-min Rain = 0
KHA3 012332Z 24002KT 09/M07 A3036 RMK A01 T00871066  RH  033%=      5-min Rain = 0
KHA3 012333Z 23002KT 09/M07 A3036 RMK A01 T00871065  RH  034%=      5-min Rain = 0
KHA3 012334Z 24002KT 09/M07 A3036 RMK A01 T00871065  RH  033%=      5-min Rain = 0
KHA3 012335Z 24002KT 09/M07 A3036 RMK A01 T00871067  RH  033%=      5-min Rain = 0
KHA3 012336Z 24002KT 09/M06 A3036 RMK A01 T00871064  RH  034%=      5-min Rain = 0
KHA3 012337Z 24002KT 09/M06 A3036 RMK A01 T00871063  RH  034%=      5-min Rain = 0
KHA3 012338Z 25002KT 09/M06 A3036 RMK A01 T00871061  RH  035%=      5-min Rain = 0
KHA3 012339Z 25002KT 09/M06 A3036 RMK A01 T00871059  RH  035%=      5-min Rain = 0
KHA3 012340Z 25002KT 09/M06 A3036 RMK A01 T00861057  RH  036%=      5-min Rain = 0
KHA3 012341Z 25002KT 09/M06 A3035 RMK A01 T00861056  RH  036%=      5-min Rain = 0
KHA3 012342Z 25002KT 09/M06 A3035 RMK A01 T00871057  RH  036%=      5-min Rain = 0
KHA3 012343Z 25002KT 09/M05 A3035 RMK A01 T00861054  RH  037%=      5-min Rain = 0
KHA3 012344Z 24002KT 09/M06 A3035 RMK A01 T00861060  RH  035%=      5-min Rain = 0
KHA3 012345Z 24002KT 09/M06 A3035 RMK A01 T00861062  RH  034%=      5-min Rain = 0
KHA3 012346Z 24002KT 09/M06 A3035 RMK A01 T00861062  RH  034%=      5-min Rain = 0
KHA3 012347Z 24002KT 09/M06 A3035 RMK A01 T00861063  RH  034%=      5-min Rain = 0
KHA3 012348Z 24002KT 09/M06 A3035 RMK A01 T00861057  RH  036%=      5-min Rain = 0
KHA3 012349Z 25002KT 09/M06 A3035 RMK A01 T00861055  RH  036%=      5-min Rain = 0
KHA3 012350Z 25002KT 09/M05 A3035 RMK A01 T00861054  RH  037%=      5-min Rain = 0
KHA3 012351Z 24002KT 09/M06 A3035 RMK A01 T00861058  RH  036%=      5-min Rain = 0
KHA3 012352Z 24002KT 09/M06 A3035 RMK A01 T00861058  RH  036%=      5-min Rain = 0
KHA3 012353Z 24002KT 09/M06 A3035 RMK A01 T00861058  RH  035%=      5-min Rain = 0
KHA3 012354Z 24002KT 09/M06 A3035 RMK A01 T00851063  RH  034%=      5-min Rain = 0
KHA3 012355Z 24002KT 09/M06 A3035 RMK A01 T00861061  RH  035%=      5-min Rain = 0
KHA3 012356Z 24002KT 09/M06 A3035 RMK A01 T00861057  RH  036%=      5-min Rain = 0
KHA3 012357Z 24002KT 09/M05 A3035 RMK A01 T00851053  RH  037%=      5-min Rain = 0
KHA3 012358Z 24002KT 09/M06 A3035 RMK A01 T00861057  RH  036%=      5-min Rain = 0
KHA3 012359Z 24002KT 09/M06 A3035 RMK A01 T00851056  RH  036%=      5-min Rain = 0
KHA3 020000Z 25002KT 09/M05 A3035 RMK A01 T00851054  RH  037%=      5-min Rain = 0
KHA3 020001Z 25002KT 09/M05 A3035 RMK A01 T00851053  RH  037%=      5-min Rain = 0
KHA3 020002Z 25002KT 09/M06 A3035 RMK A01 T00851056  RH  036%=      5-min Rain = 0
KHA3 020003Z 26002KT 09/M05 A3035 RMK A01 T00851053  RH  037%=      5-min Rain = 0
KHA3 020004Z 26003KT 09/M05 A3035 RMK A01 T00851048  RH  039%=      5-min Rain = 0
KHA3 020005Z 26003KT 09/M04 A3035 RMK A01 T00851043  RH  040%=      5-min Rain = 0
KHA3 020006Z 26003KT 08/M04 A3035 RMK A01 T00841039  RH  041%=      5-min Rain = 0
KHA3 020007Z 26003KT 08/M04 A3035 RMK A01 T00841036  RH  042%=      5-min Rain = 0
KHA3 020008Z 26003KT 08/M04 A3036 RMK A01 T00841040  RH  041%=      5-min Rain = 0
KHA3 020009Z 26003KT 08/M04 A3036 RMK A01 T00831043  RH  041%=      5-min Rain = 0
KHA3 020010Z 26003KT 08/M04 A3036 RMK A01 T00831043  RH  040%=      5-min Rain = 0
KHA3 020011Z 26003KT 08/M04 A3036 RMK A01 T00831044  RH  040%=      5-min Rain = 0
KHA3 020012Z 26004KT 08/M05 A3036 RMK A01 T00831045  RH  040%=      5-min Rain = 0
KHA3 020013Z 26004KT 08/M05 A3036 RMK A01 T00831045  RH  040%=      5-min Rain = 0
KHA3 020014Z 27004KT 08/M04 A3036 RMK A01 T00821044  RH  041%=      5-min Rain = 0
KHA3 020015Z 26004KT 08/M04 A3036 RMK A01 T00821044  RH  041%=      5-min Rain = 0
KHA3 020016Z 26004KT 08/M04 A3036 RMK A01 T00821044  RH  040%=      5-min Rain = 0
KHA3 020017Z 26004KT 08/M04 A3036 RMK A01 T00821044  RH  041%=      5-min Rain = 0
KHA3 020018Z 26004KT 08/M04 A3036 RMK A01 T00811042  RH  042%=      5-min Rain = 0
KHA3 020019Z 26004KT 08/M04 A3036 RMK A01 T00811041  RH  042%=      5-min Rain = 0
KHA3 020020Z 26004KT 08/M04 A3036 RMK A01 T00811042  RH  042%=      5-min Rain = 0
KHA3 020021Z 26004KT 08/M04 A3036 RMK A01 T00811042  RH  042%=      5-min Rain = 0
KHA3 020022Z 26004KT 08/M04 A3036 RMK A01 T00811043  RH  041%=      5-min Rain = 0
KHA3 020023Z 27004KT 08/M04 A3036 RMK A01 T00811043  RH  041%=      5-min Rain = 0
KHA3 020024Z 27004KT 08/M04 A3036 RMK A01 T00811043  RH  041%=      5-min Rain = 0
KHA3 020025Z 27004KT 08/M04 A3036 RMK A01 T00811044  RH  041%=      5-min Rain = 0
KHA3 020026Z 27004KT 08/M04 A3036 RMK A01 T00811043  RH  041%=      5-min Rain = 0
KHA3 020027Z 27004KT 08/M04 A3036 RMK A01 T00811043  RH  041%=      5-min Rain = 0
KHA3 020028Z 27004KT 08/M04 A3036 RMK A01 T00801043  RH  041%=      5-min Rain = 0
KHA3 020029Z 26004KT 08/M04 A3036 RMK A01 T00801043  RH  042%=      5-min Rain = 0
KHA3 020030Z 26004KT 08/M05 A3036 RMK A01 T00801045  RH  041%=      5-min Rain = 0
KHA3 020031Z 25004KT 08/M05 A3036 RMK A01 T00801049  RH  040%=      5-min Rain = 0
KHA3 020032Z 25004KT 08/M05 A3036 RMK A01 T00801052  RH  039%=      5-min Rain = 0
KHA3 020033Z 25004KT 08/M05 A3036 RMK A01 T00801054  RH  038%=      5-min Rain = 0
KHA3 020034Z 25004KT 08/M06 A3036 RMK A01 T00801056  RH  038%=      5-min Rain = 0
KHA3 020035Z 26003KT 08/M05 A3036 RMK A01 T00801053  RH  038%=      5-min Rain = 0
KHA3 020036Z 25003KT 08/M05 A3036 RMK A01 T00801049  RH  039%=      5-min Rain = 0
KHA3 020037Z 25002KT 08/M04 A3036 RMK A01 T00801043  RH  041%=      5-min Rain = 0
KHA3 020038Z 25002KT 08/M04 A3036 RMK A01 T00791035  RH  044%=      5-min Rain = 0
KHA3 020039Z 25002KT 08/M03 A3036 RMK A01 T00781034  RH  045%=      5-min Rain = 0
KHA3 020040Z 25003KT 08/M04 A3036 RMK A01 T00771036  RH  045%=      5-min Rain = 0
KHA3 020041Z 25003KT 08/M04 A3036 RMK A01 T00771036  RH  045%=      5-min Rain = 0
KHA3 020042Z 25003KT 08/M04 A3036 RMK A01 T00771035  RH  045%=      5-min Rain = 0
KHA3 020043Z 25003KT 08/M04 A3036 RMK A01 T00761037  RH  044%=      5-min Rain = 0
KHA3 020044Z 24003KT 08/M04 A3036 RMK A01 T00761039  RH  044%=      5-min Rain = 0
KHA3 020045Z 24003KT 08/M04 A3036 RMK A01 T00751039  RH  044%=      5-min Rain = 0
KHA3 020046Z 24004KT 07/M04 A3036 RMK A01 T00741040  RH  044%=      5-min Rain = 0
KHA3 020047Z 24004KT 07/M04 A3036 RMK A01 T00731041  RH  044%=      5-min Rain = 0
KHA3 020048Z 24004KT 07/M04 A3036 RMK A01 T00721042  RH  044%=      5-min Rain = 0
KHA3 020049Z 24004KT 07/M04 A3036 RMK A01 T00711043  RH  044%=      5-min Rain = 0
KHA3 020050Z 24004KT 07/M04 A3036 RMK A01 T00701043  RH  044%=      5-min Rain = 0
KHA3 020051Z 24004KT 07/M04 A3036 RMK A01 T00701043  RH  044%=      5-min Rain = 0
KHA3 020052Z 24005KT 07/M04 A3036 RMK A01 T00691044  RH  044%=      5-min Rain = 0
KHA3 020053Z 24005KT 07/M05 A3036 RMK A01 T00691045  RH  044%=      5-min Rain = 0
KHA3 020054Z 24005KT 07/M05 A3036 RMK A01 T00691047  RH  043%=      5-min Rain = 0
KHA3 020055Z 24005KT 07/M05 A3036 RMK A01 T00691047  RH  043%=      5-min Rain = 0
KHA3 020056Z 24005KT 07/M05 A3036 RMK A01 T00691047  RH  043%=      5-min Rain = 0
KHA3 020057Z 24006KT 07/M05 A3036 RMK A01 T00691046  RH  044%=      5-min Rain = 0
KHA3 020058Z 24006KT 07/M05 A3036 RMK A01 T00681045  RH  044%=      5-min Rain = 0
KHA3 020059Z 24006KT 07/M05 A3036 RMK A01 T00681047  RH  044%=      5-min Rain = 0
KHA3 020100Z 24006KT 07/M05 A3036 RMK A01 T00681048  RH  043%=      5-min Rain = 0
KHA3 020101Z 24006KT 07/M05 A3036 RMK A01 T00681047  RH  044%=      5-min Rain = 0
KHA3 020102Z 25006KT 07/M05 A3036 RMK A01 T00681048  RH  043%=      5-min Rain = 0
KHA3 020103Z 25005KT 07/M06 A3036 RMK A01 T00691055  RH  041%=      5-min Rain = 0
KHA3 020104Z 25006KT 07/M06 A3036 RMK A01 T00711063  RH  038%=      5-min Rain = 0
KHA3 020105Z 25006KT 07/M07 A3036 RMK A01 T00731066  RH  037%=      5-min Rain = 0
KHA3 020106Z 25006KT 07/M07 A3036 RMK A01 T00741065  RH  037%=      5-min Rain = 0
KHA3 020107Z 25006KT 07/M06 A3036 RMK A01 T00741063  RH  037%=      5-min Rain = 0
KHA3 020108Z 25006KT 07/M06 A3036 RMK A01 T00731062  RH  037%=      5-min Rain = 0
KHA3 020109Z 25005KT 07/M06 A3036 RMK A01 T00731062  RH  038%=      5-min Rain = 0
KHA3 020110Z 25005KT 07/M06 A3036 RMK A01 T00731062  RH  038%=      5-min Rain = 0
KHA3 020111Z 25005KT 07/M06 A3036 RMK A01 T00731062  RH  038%=      5-min Rain = 0
KHA3 020112Z 26005KT 07/M06 A3036 RMK A01 T00721059  RH  039%=      5-min Rain = 0
KHA3 020113Z 25005KT 07/M06 A3036 RMK A01 T00711058  RH  039%=      5-min Rain = 0
KHA3 020114Z 25005KT 07/M06 A3036 RMK A01 T00701059  RH  039%=      5-min Rain = 0
KHA3 020115Z 25005KT 07/M06 A3036 RMK A01 T00701060  RH  039%=      5-min Rain = 0
KHA3 020116Z 25005KT 07/M06 A3036 RMK A01 T00701060  RH  039%=      5-min Rain = 0
KHA3 020117Z 25005KT 07/M06 A3036 RMK A01 T00691061  RH  039%=      5-min Rain = 0
KHA3 020118Z 25005KT 07/M06 A3036 RMK A01 T00691062  RH  039%=      5-min Rain = 0
KHA3 020119Z 25005KT 07/M06 A3036 RMK A01 T00691063  RH  038%=      5-min Rain = 0
KHA3 020120Z 25005KT 07/M06 A3036 RMK A01 T00691063  RH  038%=      5-min Rain = 0
KHA3 020121Z 25005KT 07/M06 A3036 RMK A01 T00691063  RH  038%=      5-min Rain = 0
KHA3 020122Z 25005KT 07/M06 A3036 RMK A01 T00691062  RH  039%=      5-min Rain = 0
KHA3 020123Z 24004KT 07/M06 A3036 RMK A01 T00681062  RH  039%=      5-min Rain = 0
KHA3 020124Z 24004KT 07/M06 A3036 RMK A01 T00681063  RH  039%=      5-min Rain = 0
KHA3 020125Z 24004KT 07/M06 A3036 RMK A01 T00681063  RH  039%=      5-min Rain = 0
KHA3 020126Z 24004KT 07/M06 A3036 RMK A01 T00681062  RH  039%=      5-min Rain = 0
KHA3 020127Z 24004KT 07/M06 A3036 RMK A01 T00681061  RH  039%=      5-min Rain = 0
KHA3 020128Z 24004KT 07/M06 A3036 RMK A01 T00671062  RH  039%=      5-min Rain = 0
KHA3 020129Z 23003KT 07/M06 A3036 RMK A01 T00671060  RH  040%=      5-min Rain = 0
KHA3 020130Z 23004KT 07/M06 A3036 RMK A01 T00651060  RH  040%=      5-min Rain = 0
KHA3 020131Z 23004KT 06/M06 A3036 RMK A01 T00641060  RH  041%=      5-min Rain = 0
KHA3 020132Z 23004KT 06/M06 A3036 RMK A01 T00631060  RH  041%=      5-min Rain = 0
KHA3 020133Z 23004KT 06/M06 A3036 RMK A01 T00621060  RH  041%=      5-min Rain = 0
KHA3 020134Z 23004KT 06/M06 A3036 RMK A01 T00621061  RH  041%=      5-min Rain = 0
KHA3 020135Z 23004KT 06/M06 A3036 RMK A01 T00621061  RH  041%=      5-min Rain = 0
KHA3 020136Z 23004KT 06/M06 A3036 RMK A01 T00621059  RH  042%=      5-min Rain = 0
KHA3 020137Z 23004KT 06/M06 A3036 RMK A01 T00621057  RH  042%=      5-min Rain = 0
KHA3 020138Z 23004KT 06/M06 A3036 RMK A01 T00611057  RH  043%=      5-min Rain = 0
KHA3 020139Z 23004KT 06/M06 A3036 RMK A01 T00601056  RH  043%=      5-min Rain = 0
KHA3 020140Z 23004KT 06/M06 A3036 RMK A01 T00591056  RH  043%=      5-min Rain = 0
KHA3 020141Z 23004KT 06/M06 A3036 RMK A01 T00581057  RH  043%=      5-min Rain = 0
KHA3 020142Z 23004KT 06/M06 A3036 RMK A01 T00581055  RH  044%=      5-min Rain = 0
KHA3 020143Z 24005KT 06/M06 A3036 RMK A01 T00571055  RH  044%=      5-min Rain = 0
KHA3 020144Z 24005KT 06/M06 A3036 RMK A01 T00571055  RH  044%=      5-min Rain = 0
KHA3 020145Z 23005KT 06/M06 A3036 RMK A01 T00571056  RH  044%=      5-min Rain = 0
KHA3 020146Z 24004KT 06/M06 A3036 RMK A01 T00571057  RH  044%=      5-min Rain = 0
KHA3 020147Z 23004KT 06/M06 A3036 RMK A01 T00571055  RH  044%=      5-min Rain = 0
KHA3 020148Z 23005KT 06/M06 A3036 RMK A01 T00551056  RH  045%=      5-min Rain = 0
KHA3 020149Z 23004KT 06/M06 A3036 RMK A01 T00551056  RH  045%=      5-min Rain = 0
KHA3 020150Z 23005KT 06/M06 A3036 RMK A01 T00551057  RH  044%=      5-min Rain = 0
KHA3 020151Z 23005KT 06/M06 A3036 RMK A01 T00551055  RH  045%=      5-min Rain = 0
KHA3 020152Z 23005KT 06/M06 A3036 RMK A01 T00551055  RH  045%=      5-min Rain = 0
KHA3 020153Z 23005KT 05/M06 A3036 RMK A01 T00541055  RH  045%=      5-min Rain = 0
KHA3 020154Z 23005KT 05/M06 A3036 RMK A01 T00541058  RH  044%=      5-min Rain = 0
KHA3 020155Z 23005KT 05/M06 A3036 RMK A01 T00541058  RH  044%=      5-min Rain = 0
KHA3 020156Z 23005KT 05/M06 A3036 RMK A01 T00541056  RH  045%=      5-min Rain = 0
KHA3 020157Z 23005KT 05/M06 A3036 RMK A01 T00541056  RH  045%=      5-min Rain = 0
KHA3 020158Z 23005KT 05/M06 A3036 RMK A01 T00531055  RH  045%=      5-min Rain = 0
KHA3 020159Z 23005KT 05/M06 A3036 RMK A01 T00531055  RH  046%=      5-min Rain = 0
KHA3 020200Z 23005KT 05/M06 A3036 RMK A01 T00521056  RH  046%=      5-min Rain = 0
KHA3 020201Z 23005KT 05/M06 A3036 RMK A01 T00521055  RH  046%=      5-min Rain = 0
KHA3 020202Z 23005KT 05/M06 A3036 RMK A01 T00521055  RH  046%=      5-min Rain = 0
KHA3 020203Z 23005KT 05/M06 A3036 RMK A01 T00511055  RH  046%=      5-min Rain = 0
KHA3 020204Z 23005KT 05/M06 A3036 RMK A01 T00521056  RH  046%=      5-min Rain = 0
KHA3 020205Z 23005KT 05/M06 A3036 RMK A01 T00521056  RH  046%=      5-min Rain = 0
KHA3 020206Z 23005KT 05/M06 A3036 RMK A01 T00521057  RH  045%=      5-min Rain = 0
KHA3 020207Z 23005KT 05/M06 A3036 RMK A01 T00521057  RH  045%=      5-min Rain = 0
KHA3 020208Z 23005KT 05/M06 A3036 RMK A01 T00521056  RH  046%=      5-min Rain = 0
KHA3 020209Z 23005KT 05/M06 A3036 RMK A01 T00521057  RH  045%=      5-min Rain = 0
KHA3 020210Z 24004KT 05/M06 A3036 RMK A01 T00521057  RH  045%=      5-min Rain = 0
KHA3 020211Z 23005KT 05/M06 A3036 RMK A01 T00521058  RH  045%=      5-min Rain = 0
KHA3 020212Z 23004KT 05/M06 A3036 RMK A01 T00521059  RH  044%=      5-min Rain = 0
KHA3 020213Z 23005KT 05/M06 A3036 RMK A01 T00531060  RH  044%=      5-min Rain = 0
KHA3 020214Z 23005KT 05/M06 A3036 RMK A01 T00541060  RH  044%=      5-min Rain = 0
KHA3 020215Z 23005KT 05/M06 A3036 RMK A01 T00541060  RH  044%=      5-min Rain = 0
KHA3 020216Z 23005KT 05/M06 A3036 RMK A01 T00541060  RH  044%=      5-min Rain = 0
KHA3 020217Z 23005KT 05/M06 A3036 RMK A01 T00541059  RH  044%=      5-min Rain = 0
KHA3 020218Z 23005KT 05/M06 A3036 RMK A01 T00531058  RH  044%=      5-min Rain = 0
KHA3 020219Z 23005KT 05/M06 A3036 RMK A01 T00521058  RH  045%=      5-min Rain = 0
KHA3 020220Z 23005KT 05/M06 A3036 RMK A01 T00511058  RH  045%=      5-min Rain = 0
KHA3 020221Z 23005KT 05/M06 A3036 RMK A01 T00511059  RH  045%=      5-min Rain = 0
KHA3 020222Z 23005KT 05/M06 A3036 RMK A01 T00511058  RH  045%=      5-min Rain = 0
KHA3 020223Z 23005KT 05/M06 A3036 RMK A01 T00511057  RH  045%=      5-min Rain = 0
KHA3 020224Z 23005KT 05/M06 A3036 RMK A01 T00511057  RH  045%=      5-min Rain = 0
KHA3 020225Z 23005KT 05/M06 A3036 RMK A01 T00511057  RH  045%=      5-min Rain = 0
KHA3 020226Z 24005KT 05/M06 A3036 RMK A01 T00511058  RH  045%=      5-min Rain = 0
KHA3 020227Z 24005KT 05/M06 A3036 RMK A01 T00511058  RH  045%=      5-min Rain = 0
KHA3 020228Z 24005KT 05/M06 A3036 RMK A01 T00511059  RH  045%=      5-min Rain = 0
KHA3 020229Z 24005KT 05/M06 A3036 RMK A01 T00521062  RH  043%=      5-min Rain = 0
KHA3 020230Z 24005KT 05/M06 A3036 RMK A01 T00541061  RH  043%=      5-min Rain = 0
KHA3 020231Z 24005KT 06/M06 A3036 RMK A01 T00551062  RH  043%=      5-min Rain = 0
KHA3 020232Z 24005KT 06/M06 A3036 RMK A01 T00561063  RH  042%=      5-min Rain = 0
KHA3 020233Z 24004KT 06/M06 A3036 RMK A01 T00571062  RH  042%=      5-min Rain = 0
KHA3 020234Z 23005KT 06/M06 A3036 RMK A01 T00571063  RH  042%=      5-min Rain = 0
KHA3 020235Z 23005KT 06/M06 A3036 RMK A01 T00571063  RH  042%=      5-min Rain = 0
KHA3 020236Z 23005KT 06/M06 A3036 RMK A01 T00571063  RH  042%=      5-min Rain = 0
KHA3 020237Z 23005KT 06/M07 A3036 RMK A01 T00581065  RH  041%=      5-min Rain = 0
KHA3 020238Z 23005KT 06/M06 A3036 RMK A01 T00591064  RH  041%=      5-min Rain = 0
KHA3 020239Z 23005KT 06/M06 A3036 RMK A01 T00591064  RH  041%=      5-min Rain = 0
KHA3 020240Z 23005KT 06/M06 A3036 RMK A01 T00591063  RH  041%=      5-min Rain = 0
KHA3 020241Z 23005KT 06/M06 A3036 RMK A01 T00581061  RH  042%=      5-min Rain = 0
KHA3 020242Z 22005KT 06/M06 A3036 RMK A01 T00561062  RH  042%=      5-min Rain = 0
KHA3 020243Z 23005KT 05/M06 A3036 RMK A01 T00541062  RH  043%=      5-min Rain = 0
KHA3 020244Z 23005KT 05/M06 A3036 RMK A01 T00531062  RH  043%=      5-min Rain = 0
KHA3 020245Z 23005KT 05/M06 A3036 RMK A01 T00521062  RH  043%=      5-min Rain = 0
KHA3 020246Z 23005KT 05/M06 A3036 RMK A01 T00521064  RH  043%=      5-min Rain = 0
KHA3 020247Z 22005KT 05/M06 A3036 RMK A01 T00521064  RH  043%=      5-min Rain = 0
KHA3 020248Z 22005KT 05/M06 A3036 RMK A01 T00521064  RH  043%=      5-min Rain = 0
KHA3 020249Z 22005KT 05/M06 A3036 RMK A01 T00521064  RH  043%=      5-min Rain = 0
KHA3 020250Z 22005KT 05/M07 A3036 RMK A01 T00521065  RH  043%=      5-min Rain = 0
KHA3 020251Z 22005KT 05/M07 A3036 RMK A01 T00521065  RH  042%=      5-min Rain = 0
KHA3 020252Z 22004KT 05/M07 A3036 RMK A01 T00521066  RH  042%=      5-min Rain = 0
KHA3 020253Z 22005KT 05/M07 A3036 RMK A01 T00521066  RH  042%=      5-min Rain = 0
KHA3 020254Z 22005KT 05/M07 A3036 RMK A01 T00521066  RH  042%=      5-min Rain = 0
KHA3 020255Z 22005KT 05/M07 A3036 RMK A01 T00521067  RH  042%=      5-min Rain = 0
KHA3 020256Z 22005KT 05/M07 A3036 RMK A01 T00521067  RH  042%=      5-min Rain = 0
KHA3 020257Z 22005KT 05/M07 A3036 RMK A01 T00521068  RH  042%=      5-min Rain = 0
KHA3 020258Z 22005KT 05/M07 A3036 RMK A01 T00521067  RH  042%=      5-min Rain = 0
KHA3 020259Z 23005KT 05/M07 A3036 RMK A01 T00521067  RH  042%=      5-min Rain = 0
KHA3 020300Z 23005KT 05/M07 A3036 RMK A01 T00511067  RH  042%=      5-min Rain = 0
KHA3 020301Z 23005KT 05/M07 A3036 RMK A01 T00501067  RH  042%=      5-min Rain = 0
KHA3 020302Z 23004KT 05/M07 A3036 RMK A01 T00501067  RH  042%=      5-min Rain = 0
KHA3 020303Z 24004KT 05/M07 A3036 RMK A01 T00501067  RH  043%=      5-min Rain = 0
KHA3 020304Z 23004KT 05/M07 A3036 RMK A01 T00491067  RH  043%=      5-min Rain = 0
KHA3 020305Z 23004KT 05/M07 A3036 RMK A01 T00491067  RH  043%=      5-min Rain = 0
KHA3 020306Z 23004KT 05/M07 A3036 RMK A01 T00491069  RH  042%=      5-min Rain = 0
KHA3 020307Z 23004KT 05/M07 A3036 RMK A01 T00491069  RH  042%=      5-min Rain = 0
KHA3 020308Z 23004KT 05/M07 A3036 RMK A01 T00501070  RH  042%=      5-min Rain = 0
KHA3 020309Z 23005KT 05/M07 A3036 RMK A01 T00501069  RH  042%=      5-min Rain = 0
KHA3 020310Z 23005KT 05/M07 A3036 RMK A01 T00491069  RH  042%=      5-min Rain = 0
KHA3 020311Z 23005KT 05/M07 A3036 RMK A01 T00491069  RH  042%=      5-min Rain = 0
KHA3 020312Z 24005KT 05/M07 A3036 RMK A01 T00481068  RH  043%=      5-min Rain = 0
KHA3 020313Z 23005KT 05/M07 A3036 RMK A01 T00471067  RH  043%=      5-min Rain = 0
KHA3 020314Z 23006KT 05/M07 A3036 RMK A01 T00461068  RH  043%=      5-min Rain = 0
KHA3 020315Z 24005KT 05/M07 A3036 RMK A01 T00461069  RH  043%=      5-min Rain = 0
KHA3 020316Z 23005KT 05/M07 A3036 RMK A01 T00461070  RH  043%=      5-min Rain = 0
KHA3 020317Z 23005KT 05/M07 A3036 RMK A01 T00461070  RH  043%=      5-min Rain = 0
KHA3 020318Z 24005KT 05/M07 A3036 RMK A01 T00461070  RH  043%=      5-min Rain = 0
KHA3 020319Z 24006KT 05/M07 A3036 RMK A01 T00461069  RH  043%=      5-min Rain = 0
KHA3 020320Z 24006KT 05/M07 A3036 RMK A01 T00461070  RH  043%=      5-min Rain = 0
KHA3 020321Z 24006KT 05/M07 A3036 RMK A01 T00471070  RH  042%=      5-min Rain = 0
KHA3 020322Z 24006KT 05/M07 A3036 RMK A01 T00481070  RH  042%=      5-min Rain = 0
KHA3 020323Z 24006KT 05/M07 A3036 RMK A01 T00481070  RH  042%=      5-min Rain = 0
KHA3 020324Z 24006KT 05/M07 A3036 RMK A01 T00491070  RH  042%=      5-min Rain = 0
KHA3 020325Z 24005KT 05/M07 A3036 RMK A01 T00491070  RH  042%=      5-min Rain = 0
KHA3 020326Z 24006KT 05/M07 A3036 RMK A01 T00491069  RH  042%=      5-min Rain = 0
KHA3 020327Z 24005KT 05/M07 A3036 RMK A01 T00491069  RH  042%=      5-min Rain = 0
KHA3 020328Z 24006KT 05/M07 A3036 RMK A01 T00491069  RH  042%=      5-min Rain = 0
KHA3 020329Z 24005KT 05/M07 A3036 RMK A01 T00491069  RH  042%=      5-min Rain = 0
KHA3 020330Z 24005KT 05/M07 A3036 RMK A01 T00481069  RH  042%=      5-min Rain = 0
KHA3 020331Z 24005KT 05/M07 A3036 RMK A01 T00481069  RH  043%=      5-min Rain = 0
KHA3 020332Z 24005KT 05/M07 A3036 RMK A01 T00471069  RH  043%=      5-min Rain = 0
KHA3 020333Z 23005KT 05/M07 A3036 RMK A01 T00461069  RH  043%=      5-min Rain = 0
KHA3 020334Z 23004KT 05/M07 A3036 RMK A01 T00461069  RH  043%=      5-min Rain = 0
KHA3 020335Z 23004KT 05/M07 A3036 RMK A01 T00451069  RH  043%=      5-min Rain = 0
KHA3 020336Z 23004KT 04/M07 A3036 RMK A01 T00431069  RH  044%=      5-min Rain = 0
KHA3 020337Z 23004KT 04/M07 A3036 RMK A01 T00421070  RH  044%=      5-min Rain = 0
KHA3 020338Z 23005KT 04/M07 A3036 RMK A01 T00411070  RH  044%=      5-min Rain = 0
KHA3 020339Z 23005KT 04/M07 A3036 RMK A01 T00401070  RH  044%=      5-min Rain = 0
KHA3 020340Z 23005KT 04/M07 A3036 RMK A01 T00401070  RH  044%=      5-min Rain = 0
KHA3 020341Z 23005KT 04/M07 A3036 RMK A01 T00401070  RH  044%=      5-min Rain = 0
KHA3 020342Z 23005KT 04/M07 A3036 RMK A01 T00391070  RH  045%=      5-min Rain = 0
KHA3 020343Z 22005KT 04/M07 A3036 RMK A01 T00391070  RH  045%=      5-min Rain = 0
KHA3 020344Z 22006KT 04/M07 A3036 RMK A01 T00381070  RH  045%=      5-min Rain = 0
KHA3 020345Z 22005KT 04/M07 A3036 RMK A01 T00371070  RH  045%=      5-min Rain = 0
KHA3 020346Z 23005KT 04/M07 A3036 RMK A01 T00371070  RH  045%=      5-min Rain = 0
KHA3 020347Z 22006KT 04/M07 A3036 RMK A01 T00361070  RH  046%=      5-min Rain = 0
KHA3 020348Z 22005KT 04/M07 A3036 RMK A01 T00351070  RH  046%=      5-min Rain = 0
KHA3 020349Z 22005KT 04/M07 A3036 RMK A01 T00351070  RH  046%=      5-min Rain = 0
KHA3 020350Z 22005KT 04/M07 A3036 RMK A01 T00351070  RH  046%=      5-min Rain = 0
KHA3 020351Z 23005KT 03/M07 A3036 RMK A01 T00341070  RH  046%=      5-min Rain = 0
KHA3 020352Z 22005KT 03/M07 A3036 RMK A01 T00341070  RH  046%=      5-min Rain = 0
KHA3 020353Z 22005KT 03/M07 A3036 RMK A01 T00341070  RH  046%=      5-min Rain = 0
KHA3 020354Z 22005KT 03/M07 A3036 RMK A01 T00341070  RH  046%=      5-min Rain = 0
KHA3 020355Z 22005KT 03/M07 A3036 RMK A01 T00341070  RH  046%=      5-min Rain = 0
KHA3 020356Z 22005KT 03/M07 A3036 RMK A01 T00341070  RH  046%=      5-min Rain = 0
KHA3 020357Z 22005KT 03/M07 A3036 RMK A01 T00341071  RH  046%=      5-min Rain = 0
KHA3 020358Z 22005KT 03/M07 A3036 RMK A01 T00341070  RH  046%=      5-min Rain = 0
KHA3 020359Z 22005KT 03/M07 A3036 RMK A01 T00331070  RH  047%=      5-min Rain = 0
KHA3 020400Z 22005KT 03/M07 A3036 RMK A01 T00331069  RH  047%=      5-min Rain = 0
KHA3 020401Z 21005KT 03/M07 A3036 RMK A01 T00331071  RH  046%=      5-min Rain = 0
KHA3 020402Z 22005KT 03/M07 A3036 RMK A01 T00341071  RH  046%=      5-min Rain = 0
KHA3 020403Z 21005KT 03/M07 A3036 RMK A01 T00331071  RH  046%=      5-min Rain = 0
KHA3 020404Z 21005KT 03/M07 A3036 RMK A01 T00341071  RH  046%=      5-min Rain = 0
KHA3 020405Z 21005KT 03/M07 A3036 RMK A01 T00341071  RH  046%=      5-min Rain = 0
KHA3 020406Z 21005KT 03/M07 A3036 RMK A01 T00331070  RH  047%=      5-min Rain = 0
KHA3 020407Z 21006KT 03/M07 A3036 RMK A01 T00331071  RH  046%=      5-min Rain = 0
KHA3 020408Z 21006KT 03/M07 A3036 RMK A01 T00331071  RH  046%=      5-min Rain = 0
KHA3 020409Z 20006KT 03/M07 A3036 RMK A01 T00331071  RH  046%=      5-min Rain = 0
KHA3 020410Z 21006KT 03/M07 A3036 RMK A01 T00331071  RH  047%=      5-min Rain = 0
KHA3 020411Z 20006KT 03/M07 A3036 RMK A01 T00321071  RH  047%=      5-min Rain = 0
KHA3 020412Z 21006KT 03/M07 A3036 RMK A01 T00321070  RH  047%=      5-min Rain = 0
KHA3 020413Z 21006KT 03/M07 A3036 RMK A01 T00311070  RH  048%=      5-min Rain = 0
KHA3 020414Z 21006KT 03/M07 A3036 RMK A01 T00311069  RH  048%=      5-min Rain = 0
KHA3 020415Z 21006KT 03/M07 A3036 RMK A01 T00301069  RH  048%=      5-min Rain = 0
KHA3 020416Z 21006KT 03/M07 A3036 RMK A01 T00301070  RH  048%=      5-min Rain = 0
KHA3 020417Z 21006KT 03/M07 A3036 RMK A01 T00301070  RH  048%=      5-min Rain = 0
KHA3 020418Z 22006KT 03/M07 A3036 RMK A01 T00301070  RH  048%=      5-min Rain = 0
KHA3 020419Z 22006KT 03/M07 A3036 RMK A01 T00301070  RH  048%=      5-min Rain = 0
KHA3 020420Z 22005KT 03/M07 A3036 RMK A01 T00301070  RH  048%=      5-min Rain = 0
KHA3 020421Z 22005KT 03/M07 A3036 RMK A01 T00301070  RH  048%=      5-min Rain = 0
KHA3 020422Z 22005KT 03/M07 A3036 RMK A01 T00301070  RH  048%=      5-min Rain = 0
KHA3 020423Z 22005KT 03/M07 A3036 RMK A01 T00301071  RH  048%=      5-min Rain = 0
KHA3 020424Z 22005KT 03/M07 A3036 RMK A01 T00301071  RH  047%=      5-min Rain = 0
KHA3 020425Z 22005KT 03/M07 A3036 RMK A01 T00311071  RH  047%=      5-min Rain = 0
KHA3 020426Z 22005KT 03/M07 A3036 RMK A01 T00311071  RH  047%=      5-min Rain = 0
KHA3 020427Z 22006KT 03/M07 A3036 RMK A01 T00321070  RH  047%=      5-min Rain = 0
KHA3 020428Z 22006KT 03/M07 A3036 RMK A01 T00311071  RH  047%=      5-min Rain = 0
KHA3 020429Z 22005KT 03/M07 A3036 RMK A01 T00311071  RH  047%=      5-min Rain = 0
KHA3 020430Z 23006KT 03/M07 A3036 RMK A01 T00311072  RH  047%=      5-min Rain = 0
KHA3 020431Z 23005KT 03/M07 A3036 RMK A01 T00311072  RH  047%=      5-min Rain = 0
KHA3 020432Z 23006KT 03/M07 A3036 RMK A01 T00311072  RH  047%=      5-min Rain = 0
KHA3 020433Z 23005KT 03/M07 A3036 RMK A01 T00321072  RH  047%=      5-min Rain = 0
KHA3 020434Z 23005KT 03/M07 A3036 RMK A01 T00311072  RH  047%=      5-min Rain = 0
KHA3 020435Z 23005KT 03/M07 A3036 RMK A01 T00311072  RH  047%=      5-min Rain = 0
KHA3 020436Z 23005KT 03/M07 A3036 RMK A01 T00301072  RH  047%=      5-min Rain = 0
KHA3 020437Z 22005KT 03/M07 A3036 RMK A01 T00301072  RH  047%=      5-min Rain = 0
KHA3 020438Z 22005KT 03/M07 A3036 RMK A01 T00291072  RH  047%=      5-min Rain = 0
KHA3 020439Z 22006KT 03/M07 A3036 RMK A01 T00291072  RH  047%=      5-min Rain = 0
KHA3 020440Z 22005KT 03/M07 A3036 RMK A01 T00301073  RH  047%=      5-min Rain = 0
KHA3 020441Z 22005KT 03/M07 A3036 RMK A01 T00311073  RH  046%=      5-min Rain = 0
KHA3 020442Z 22006KT 03/M07 A3036 RMK A01 T00311073  RH  046%=      5-min Rain = 0
KHA3 020443Z 21006KT 03/M07 A3036 RMK A01 T00311073  RH  046%=      5-min Rain = 0
KHA3 020444Z 21006KT 03/M07 A3036 RMK A01 T00301074  RH  046%=      5-min Rain = 0
KHA3 020445Z 21006KT 03/M07 A3036 RMK A01 T00301074  RH  046%=      5-min Rain = 0
KHA3 020446Z 21006KT 03/M08 A3036 RMK A01 T00301075  RH  046%=      5-min Rain = 0
KHA3 020447Z 22006KT 03/M08 A3036 RMK A01 T00301075  RH  046%=      5-min Rain = 0
KHA3 020448Z 22006KT 03/M08 A3036 RMK A01 T00301075  RH  046%=      5-min Rain = 0
KHA3 020449Z 22006KT 03/M08 A3036 RMK A01 T00301076  RH  046%=      5-min Rain = 0
KHA3 020450Z 23005KT 03/M08 A3036 RMK A01 T00301076  RH  046%=      5-min Rain = 0
KHA3 020451Z 23006KT 03/M08 A3036 RMK A01 T00291075  RH  046%=      5-min Rain = 0
KHA3 020452Z 23005KT 03/M08 A3036 RMK A01 T00291075  RH  046%=      5-min Rain = 0
KHA3 020453Z 23005KT 03/M08 A3036 RMK A01 T00281075  RH  047%=      5-min Rain = 0
KHA3 020454Z 23005KT 03/M08 A3036 RMK A01 T00281076  RH  047%=      5-min Rain = 0
KHA3 020455Z 23005KT 03/M08 A3036 RMK A01 T00281075  RH  047%=      5-min Rain = 0
KHA3 020456Z 23005KT 03/M08 A3036 RMK A01 T00281075  RH  047%=      5-min Rain = 0
KHA3 020457Z 23005KT 03/M08 A3036 RMK A01 T00271076  RH  047%=      5-min Rain = 0
KHA3 020458Z 23006KT 03/M08 A3036 RMK A01 T00271076  RH  046%=      5-min Rain = 0
KHA3 020459Z 23005KT 03/M08 A3036 RMK A01 T00281076  RH  046%=      5-min Rain = 0
KHA3 020500Z 23005KT 03/M08 A3036 RMK A01 T00281076  RH  046%=      5-min Rain = 0
KHA3 020501Z 23006KT 03/M08 A3036 RMK A01 T00281076  RH  046%=      5-min Rain = 0
KHA3 020502Z 23005KT 03/M08 A3036 RMK A01 T00281077  RH  046%=      5-min Rain = 0
KHA3 020503Z 23006KT 03/M08 A3036 RMK A01 T00281076  RH  046%=      5-min Rain = 0
KHA3 020504Z 23005KT 03/M08 A3036 RMK A01 T00281077  RH  046%=      5-min Rain = 0
KHA3 020505Z 23005KT 03/M08 A3036 RMK A01 T00281078  RH  046%=      5-min Rain = 0
KHA3 020506Z 23005KT 03/M08 A3036 RMK A01 T00281077  RH  046%=      5-min Rain = 0
KHA3 020507Z 23005KT 03/M08 A3036 RMK A01 T00281077  RH  046%=      5-min Rain = 0
KHA3 020508Z 24005KT 03/M08 A3035 RMK A01 T00281078  RH  046%=      5-min Rain = 0
KHA3 020509Z 23005KT 03/M08 A3035 RMK A01 T00281078  RH  046%=      5-min Rain = 0
KHA3 020510Z 23005KT 03/M08 A3035 RMK A01 T00291079  RH  045%=      5-min Rain = 0
KHA3 020511Z 23005KT 03/M08 A3035 RMK A01 T00301078  RH  045%=      5-min Rain = 0
KHA3 020512Z 23005KT 03/M08 A3035 RMK A01 T00301078  RH  045%=      5-min Rain = 0
KHA3 020513Z 23005KT 03/M08 A3035 RMK A01 T00291078  RH  045%=      5-min Rain = 0
KHA3 020514Z 23005KT 03/M08 A3035 RMK A01 T00281078  RH  046%=      5-min Rain = 0
KHA3 020515Z 23005KT 03/M08 A3035 RMK A01 T00281078  RH  046%=      5-min Rain = 0
KHA3 020516Z 22005KT 03/M08 A3035 RMK A01 T00281078  RH  046%=      5-min Rain = 0
KHA3 020517Z 23005KT 03/M08 A3035 RMK A01 T00271078  RH  046%=      5-min Rain = 0
KHA3 020518Z 23005KT 03/M08 A3035 RMK A01 T00271078  RH  046%=      5-min Rain = 0
KHA3 020519Z 23005KT 03/M08 A3035 RMK A01 T00271078  RH  046%=      5-min Rain = 0
KHA3 020520Z 22005KT 03/M08 A3035 RMK A01 T00271078  RH  046%=      5-min Rain = 0
KHA3 020521Z 22005KT 03/M08 A3035 RMK A01 T00271078  RH  046%=      5-min Rain = 0
KHA3 020522Z 22005KT 03/M08 A3035 RMK A01 T00281078  RH  046%=      5-min Rain = 0
KHA3 020523Z 22006KT 03/M08 A3035 RMK A01 T00281080  RH  045%=      5-min Rain = 0
KHA3 020524Z 22006KT 03/M08 A3035 RMK A01 T00281080  RH  045%=      5-min Rain = 0
KHA3 020525Z 22006KT 03/M08 A3035 RMK A01 T00281080  RH  045%=      5-min Rain = 0
KHA3 020526Z 22006KT 03/M08 A3035 RMK A01 T00291080  RH  045%=      5-min Rain = 0
KHA3 020527Z 22006KT 03/M08 A3035 RMK A01 T00291081  RH  044%=      5-min Rain = 0
KHA3 020528Z 22005KT 03/M08 A3035 RMK A01 T00291081  RH  044%=      5-min Rain = 0
KHA3 020529Z 22006KT 03/M08 A3035 RMK A01 T00291081  RH  044%=      5-min Rain = 0
KHA3 020530Z 22005KT 03/M08 A3035 RMK A01 T00291081  RH  044%=      5-min Rain = 0
KHA3 020531Z 22005KT 03/M08 A3035 RMK A01 T00291081  RH  044%=      5-min Rain = 0
KHA3 020532Z 22005KT 03/M08 A3035 RMK A01 T00281081  RH  045%=      5-min Rain = 0
KHA3 020533Z 22005KT 03/M08 A3035 RMK A01 T00271080  RH  045%=      5-min Rain = 0
KHA3 020534Z 22005KT 03/M08 A3035 RMK A01 T00271081  RH  045%=      5-min Rain = 0
KHA3 020535Z 22004KT 03/M08 A3035 RMK A01 T00271081  RH  045%=      5-min Rain = 0
KHA3 020536Z 22005KT 03/M08 A3035 RMK A01 T00261081  RH  045%=      5-min Rain = 0
KHA3 020537Z 22005KT 03/M08 A3035 RMK A01 T00261081  RH  045%=      5-min Rain = 0
KHA3 020538Z 21005KT 03/M08 A3035 RMK A01 T00251080  RH  046%=      5-min Rain = 0
KHA3 020539Z 21005KT 03/M08 A3035 RMK A01 T00251081  RH  046%=      5-min Rain = 0
KHA3 020540Z 21005KT 02/M08 A3035 RMK A01 T00241081  RH  046%=      5-min Rain = 0
KHA3 020541Z 22005KT 02/M08 A3035 RMK A01 T00241081  RH  046%=      5-min Rain = 0
KHA3 020542Z 22005KT 02/M08 A3035 RMK A01 T00241081  RH  046%=      5-min Rain = 0
KHA3 020543Z 22006KT 02/M08 A3035 RMK A01 T00241081  RH  046%=      5-min Rain = 0
KHA3 020544Z 22005KT 02/M08 A3035 RMK A01 T00241081  RH  046%=      5-min Rain = 0
KHA3 020545Z 22005KT 03/M08 A3035 RMK A01 T00251081  RH  046%=      5-min Rain = 0
KHA3 020546Z 22005KT 03/M08 A3035 RMK A01 T00251081  RH  045%=      5-min Rain = 0
KHA3 020547Z 22005KT 03/M08 A3035 RMK A01 T00251080  RH  046%=      5-min Rain = 0
KHA3 020548Z 22005KT 03/M08 A3035 RMK A01 T00251080  RH  046%=      5-min Rain = 0
KHA3 020549Z 23005KT 03/M08 A3035 RMK A01 T00251081  RH  046%=      5-min Rain = 0
KHA3 020550Z 23005KT 02/M08 A3035 RMK A01 T00241081  RH  046%=      5-min Rain = 0
KHA3 020551Z 23005KT 02/M08 A3035 RMK A01 T00231081  RH  046%=      5-min Rain = 0
KHA3 020552Z 23005KT 02/M08 A3035 RMK A01 T00221080  RH  047%=      5-min Rain = 0
KHA3 020553Z 24005KT 02/M08 A3035 RMK A01 T00201080  RH  047%=      5-min Rain = 0
KHA3 020554Z 24005KT 02/M08 A3035 RMK A01 T00201081  RH  047%=      5-min Rain = 0
KHA3 020555Z 24005KT 02/M08 A3035 RMK A01 T00211081  RH  047%=      5-min Rain = 0
KHA3 020556Z 24005KT 02/M08 A3035 RMK A01 T00221080  RH  047%=      5-min Rain = 0
KHA3 020557Z 24005KT 02/M08 A3035 RMK A01 T00221080  RH  047%=      5-min Rain = 0
KHA3 020558Z 24005KT 02/M08 A3035 RMK A01 T00231081  RH  046%=      5-min Rain = 0
KHA3 020559Z 24005KT 03/M08 A3035 RMK A01 T00251081  RH  045%=      5-min Rain = 0

Page generated in 0.0651 seconds.